GFSFLT1_850_spd_000.txt.gz
Wind_Speed
7 4 1 2 1 1 2 7 5 4 6 7 6 8 11 13 10 9 8 1 5 6 7 7 6 6 5 4 5 6 5 5 4
7 6 2 1 1 1 1 3 5 5 6 7 7 9 11 12 10 5 5 3 3 4 6 6 6 6 6 6 6 7 7 7 7
4 1 2 4 3 3 2 3 5 6 7 8 8 9 12 13 10 8 5 3 2 3 5 5 4 4 4 5 6 6 7 8 7
6 4 5 6 6 6 5 5 7 8 9 10 9 10 11 12 8 4 5 4 3 1 2 2 2 3 3 4 4 4 4 5 5
7 8 9 8 8 8 7 7 9 11 11 11 11 11 11 9 9 11 8 7 5 3 2 1 1 0 1 2 3 3 4 4 4
8 10 10 10 11 10 9 9 10 11 12 11 12 12 12 10 8 9 10 10 9 7 6 5 4 3 3 3 3 3 4 4 5
13 12 10 11 13 12 10 10 11 11 11 11 12 13 14 13 13 15 13 13 12 11 9 8 8 6 6 6 6 6 6 7 7
17 17 15 12 13 13 11 11 12 12 12 12 12 14 15 12 15 16 16 16 16 15 13 12 11 10 10 10 11 11 11 11 11
15 13 12 12 12 10 12 12 14 15 16 18 18 17 18 19 20 20 21 20 20 19 18 17 15 15 15 14 15 15 16 16 15
14 13 13 15 13 13 12 15 15 16 18 20 21 22 22 23 24 25 25 24 23 24 23 22 21 20 19 19 19 19 20 20 20
16 17 16 17 16 14 15 18 17 20 20 22 23 25 26 28 28 29 28 29 28 28 27 27 26 24 24 24 24 24 24 24 24
19 19 19 19 19 19 18 19 20 21 22 25 25 27 28 29 31 32 33 33 33 33 32 32 31 30 29 28 28 28 28 28 28
22 23 23 23 23 23 23 23 24 26 27 28 29 29 30 31 32 33 35 36 36 38 37 36 36 34 33 32 31 31 31 31 31
26 27 27 26 26 27 27 27 27 27 27 27 28 30 30 31 32 35 36 37 39 40 40 40 39 38 37 36 35 34 35 34 33
32 33 32 31 30 30 30 31 30 29 29 29 31 30 30 32 35 39 37 39 40 41 43 43 43 42 40 37 36 37 35 34 32
35 36 36 35 35 34 33 32 32 33 31 30 31 31 31 34 36 36 40 41 43 43 45 45 44 43 40 36 33 31 29 27 26
37 37 38 38 38 38 37 35 34 34 31 31 29 30 32 37 40 41 41 41 39 38 37 37 37 37 37 31 26 27 27 24 23
35 36 38 39 39 39 39 38 36 35 32 31 27 13 20 21 22 24 26 29 33 37 37 34 35 33 29 25 26 26 25 24 25
29 31 34 38 40 40 40 39 39 35 37 34 38 41 39 25 21 26 27 26 31 33 29 28 27 28 30 26 27 27 27 28 28
34 34 32 33 38 40 41 39 38 39 39 40 38 38 43 47 42 35 33 33 36 34 29 30 33 34 32 29 29 29 31 30 29

GFSFLT1_850_spd_003.txt.gz
Wind_Speed
4 5 1 2 2 2 4 8 7 6 8 9 8 10 11 11 12 9 6 5 6 5 4 3 3 3 3 3 3 3 2 2 2
5 4 4 2 3 3 5 7 9 6 6 8 9 12 13 13 11 12 9 6 5 4 4 3 3 3 3 3 4 4 5 5 5
7 3 3 4 4 4 4 5 7 8 7 8 9 13 13 14 12 10 7 6 5 4 3 2 2 2 3 2 3 3 3 3 4
7 5 5 7 6 7 5 6 7 9 10 10 10 13 15 15 14 11 8 7 6 5 4 2 1 1 0 0 1 1 1 1 2
6 7 8 8 8 8 8 8 9 11 11 12 12 13 16 15 14 14 11 9 8 8 6 5 4 4 3 2 2 2 2 1 1
9 9 10 11 11 11 12 11 11 12 12 13 14 15 16 17 14 16 12 11 11 11 10 9 8 7 6 5 5 5 5 4 4
10 7 8 9 12 13 13 12 12 13 14 16 17 16 17 19 17 18 15 14 14 14 14 12 12 11 10 9 9 8 8 8 8
8 10 12 15 14 13 14 14 14 14 16 18 18 18 19 21 20 20 18 18 18 18 18 17 16 15 14 14 13 14 13 13 12
10 12 13 13 13 13 14 14 15 16 18 20 20 22 22 23 24 23 23 23 22 22 22 22 21 20 19 19 18 18 19 19 18
14 15 15 14 15 14 15 15 16 18 20 21 23 24 24 26 27 27 28 28 27 26 26 27 26 25 24 23 23 23 22 23 23
18 18 18 18 18 17 18 19 18 19 21 22 23 26 28 28 30 31 32 32 32 32 31 31 31 31 30 29 28 28 28 27 27
20 21 22 22 21 21 21 22 23 23 23 26 26 27 29 30 32 33 35 37 37 37 37 37 36 36 35 35 34 33 32 32 30
24 24 24 25 25 25 25 25 27 28 28 29 29 29 30 32 34 36 37 38 40 41 43 42 42 42 41 39 38 36 36 35 35
28 29 29 30 30 31 30 30 31 31 31 31 31 32 34 36 37 39 40 42 42 43 44 44 44 44 44 43 42 39 39 38 39
33 34 34 35 34 36 35 35 34 34 35 32 34 34 34 36 38 40 40 41 42 44 45 45 46 47 46 46 45 44 43 42 41
37 37 38 39 38 38 39 38 38 39 38 34 38 37 38 41 42 42 42 43 43 44 45 46 48 49 48 47 46 45 43 40 41
36 36 38 39 40 40 41 41 41 43 41 39 37 32 37 43 41 38 39 42 41 43 41 42 44 44 43 42 41 40 37 38 36
32 32 33 35 37 40 42 42 42 44 43 41 32 14 18 22 27 22 24 25 30 32 32 33 33 34 37 37 35 34 32 33 32
29 30 31 30 32 35 38 42 42 41 44 42 45 45 43 28 26 31 25 24 31 36 36 34 34 35 37 35 33 33 32 31 31
24 26 27 30 30 32 33 36 38 40 42 44 44 42 44 49 45 37 45 38 41 40 39 41 43 41 38 36 36 34 35 31 33

GFSFLT1_850_spd_006.txt.gz
Wind_Speed
8 3 4 4 6 4 5 9 8 6 8 9 9 11 13 13 13 8 5 5 6 5 4 4 3 3 3 2 1 2 1 1 2
7 4 6 5 5 5 6 8 10 9 8 8 11 13 14 13 13 13 9 8 8 7 5 4 3 3 2 2 2 1 0 1 1
11 7 6 6 6 7 7 8 10 11 10 10 10 14 16 15 14 13 10 9 9 8 7 6 5 4 3 3 3 3 2 2 2
12 8 8 8 8 9 9 9 10 11 12 12 12 15 17 17 16 14 14 11 11 10 9 8 7 6 5 5 5 4 4 4 3
12 10 9 9 9 11 11 11 11 12 13 14 14 15 18 19 19 17 16 14 13 13 12 11 10 8 7 7 7 6 6 6 6
10 10 9 11 13 13 14 14 14 14 14 16 16 17 18 21 21 21 19 16 16 16 15 14 13 12 11 10 10 10 9 9 8
10 9 8 10 12 13 14 15 16 16 16 17 18 20 20 22 24 24 22 20 19 19 19 18 17 16 15 14 14 13 13 12 12
8 9 10 11 12 13 14 16 17 17 17 18 20 21 22 24 25 26 24 24 22 22 22 22 21 20 19 19 18 18 17 17 16
10 11 12 13 14 15 15 16 16 17 18 20 21 23 24 25 26 28 28 28 27 26 26 27 26 25 24 24 23 22 22 22 21
13 14 15 16 16 18 18 18 18 19 19 21 23 24 26 27 28 30 31 32 31 31 31 31 31 31 29 29 28 28 27 27 26
16 17 18 19 19 19 20 20 21 22 22 23 24 27 28 29 31 32 34 36 37 36 36 36 35 35 34 34 34 34 32 31 31
20 21 23 24 25 25 26 26 26 27 27 28 27 28 29 31 32 34 36 38 39 41 41 41 41 40 39 37 38 38 38 36 36
26 29 30 30 30 30 31 31 31 32 32 33 32 32 33 33 35 37 38 40 41 43 45 46 46 46 46 43 41 40 40 40 41
30 32 33 34 35 35 36 37 36 37 38 37 37 36 37 37 38 41 41 42 43 44 45 46 47 48 48 47 44 42 42 42 43
32 33 35 36 37 38 39 39 40 41 42 43 42 41 41 40 42 45 44 45 46 46 47 47 47 47 47 48 48 48 47 46 45
32 34 34 34 36 37 37 38 39 41 42 43 46 47 46 47 47 48 48 48 48 47 46 45 45 46 46 45 47 48 47 46 47
28 29 30 30 31 32 33 34 37 39 39 41 39 31 38 45 44 38 30 31 32 37 38 40 40 42 43 43 43 43 44 43 44
25 26 27 28 31 31 31 32 34 37 36 38 36 17 19 30 34 32 29 36 38 34 31 34 35 36 36 37 38 38 37 38 40
23 22 23 24 26 29 29 31 33 35 38 35 39 44 45 30 31 39 37 34 42 44 42 42 42 42 40 40 38 35 35 36 36
13 15 17 18 19 24 27 31 35 37 39 39 40 42 44 46 44 35 44 42 42 45 44 47 46 45 42 41 43 42 39 38 36

GFSFLT1_850_spd_009.txt.gz
Wind_Speed
9 8 6 5 7 6 5 8 8 6 13 12 10 12 15 14 13 10 8 8 8 8 7 7 7 7 7 5 4 4 4 3 5
12 8 7 7 7 6 7 7 10 12 10 10 10 12 15 15 15 14 10 8 8 9 9 8 7 6 7 5 4 4 3 3 3
15 14 11 8 7 7 8 9 10 12 12 11 11 13 16 16 15 14 15 12 11 12 11 10 9 8 8 7 6 5 5 5 5
14 14 12 10 8 9 9 11 11 12 13 13 13 14 17 19 18 17 16 15 13 15 14 13 11 11 10 9 8 8 7 7 7
13 12 11 10 10 10 11 12 13 13 14 14 15 16 18 21 21 19 19 18 16 17 17 15 15 14 13 12 11 10 10 10 9
10 10 10 10 11 12 14 15 15 16 16 15 16 17 20 22 24 23 22 21 21 20 20 19 18 18 17 16 14 14 13 12 12
10 9 9 10 10 11 13 15 16 18 17 17 18 20 21 23 24 26 25 25 24 24 23 24 22 22 21 20 19 18 17 17 16
10 10 10 11 12 13 14 15 16 17 18 19 20 21 23 24 26 27 29 29 28 28 27 27 27 26 25 24 23 22 22 21 20
11 11 12 14 14 16 16 17 18 19 20 20 21 23 24 25 27 29 30 32 32 32 31 30 31 30 30 29 28 27 27 26 25
16 17 18 18 19 19 20 21 22 22 22 22 24 24 25 28 29 31 31 33 36 36 36 33 32 33 33 33 33 33 32 31 30
20 22 23 23 23 23 25 26 27 28 27 27 26 28 28 29 31 33 34 35 37 39 39 39 36 35 36 36 37 37 37 36 35
22 24 26 27 28 29 30 31 32 33 33 34 32 31 32 33 34 34 36 37 38 41 42 43 43 42 41 39 40 41 41 40 40
26 27 29 30 31 32 33 34 36 38 38 38 38 38 37 37 37 37 38 40 40 40 42 45 46 47 47 43 43 43 44 44 44
27 29 30 31 32 34 35 36 37 39 41 41 41 41 41 41 41 42 42 43 43 43 44 45 46 47 49 49 47 48 48 48 48
28 29 30 30 32 33 34 35 35 37 38 40 42 43 44 44 43 43 45 46 46 45 46 47 48 47 48 49 50 51 52 51 51
28 30 29 28 30 30 32 34 35 35 34 37 38 39 41 42 43 41 40 40 39 37 36 37 40 44 46 46 46 46 48 49 49
26 26 27 28 30 30 30 32 35 36 30 35 34 28 32 35 36 36 36 35 32 31 33 36 36 32 33 35 35 38 40 42 46
18 20 21 22 24 27 27 28 30 35 34 37 35 20 19 30 36 39 40 41 40 39 40 39 39 38 37 37 37 38 38 37 38
12 14 16 17 19 21 21 22 25 29 34 33 36 38 40 28 31 32 33 40 42 46 46 44 42 42 44 43 39 38 38 39 39
13 14 16 18 19 20 21 23 23 25 30 33 37 37 39 42 41 36 32 34 41 45 45 44 46 46 44 45 45 41 36 33 39

GFSFLT1_850_spd_012.txt.gz
Wind_Speed
6 9 7 7 7 8 5 8 8 8 10 12 12 12 14 13 13 9 8 10 8 9 8 8 9 9 10 9 8 8 7 6 7
9 9 10 10 7 7 7 7 9 11 10 11 13 13 15 15 15 14 12 11 9 9 9 10 10 10 10 9 8 8 6 6 6
14 13 11 11 9 8 8 8 9 10 11 12 13 12 15 15 16 15 14 14 13 12 13 12 12 12 11 10 9 9 8 7 7
10 12 14 11 11 10 11 11 12 12 12 13 14 14 15 17 17 17 16 15 16 14 16 16 15 14 13 12 12 11 10 10 9
10 11 11 11 11 11 11 12 14 14 15 15 15 16 17 19 20 20 20 18 19 18 18 20 18 18 16 16 15 14 13 12 12
8 9 8 9 10 11 12 15 15 16 17 17 17 18 18 20 23 23 23 23 22 22 20 21 23 21 20 19 19 18 17 16 16
9 9 10 12 12 12 13 15 16 17 18 17 18 19 20 22 23 25 25 27 27 26 25 24 25 25 24 24 23 22 21 20 20
11 12 12 13 13 14 15 16 17 18 19 19 20 20 21 23 24 27 27 28 30 30 30 28 28 29 28 27 27 27 26 25 24
13 14 14 15 15 17 18 19 20 21 21 22 22 22 23 24 25 27 28 30 31 33 34 33 30 30 31 32 31 31 31 30 29
15 16 18 19 20 21 22 23 24 26 26 26 27 28 27 26 27 28 28 30 32 34 35 37 36 34 34 35 37 36 36 35 34
18 19 21 22 23 25 26 28 29 30 31 31 31 31 32 31 31 31 32 31 33 36 37 39 40 40 36 37 39 41 40 38 38
21 22 23 24 24 26 28 29 31 33 35 36 37 36 35 35 35 35 35 35 35 36 38 40 42 43 43 40 41 43 44 43 43
22 23 24 25 26 28 30 31 33 35 36 38 38 38 37 36 37 37 38 39 40 40 39 40 41 43 45 44 43 45 46 46 46
24 25 25 26 29 30 31 33 34 36 38 39 38 38 38 37 37 38 39 39 40 43 43 42 42 42 44 45 46 47 48 49 50
25 25 26 27 29 30 31 32 32 34 34 36 37 37 37 37 39 38 37 37 37 37 36 38 40 41 43 44 47 47 48 49 50
20 23 25 25 27 29 29 31 33 33 32 36 37 38 39 38 37 38 35 38 38 35 35 35 34 32 30 31 30 35 43 46 48
15 18 19 21 23 24 24 25 26 29 27 32 34 27 29 33 30 33 38 38 36 37 37 37 36 36 36 33 32 31 30 32 35
14 15 17 18 20 21 22 22 23 26 26 26 29 20 24 35 36 33 41 40 37 42 39 40 41 42 43 41 40 37 36 35 37
14 15 17 19 20 21 22 23 24 24 25 25 26 30 35 33 36 30 27 34 40 38 40 42 43 40 41 42 42 40 39 39 39
19 20 22 23 24 25 26 27 27 27 28 27 28 30 32 32 30 38 33 37 38 39 41 42 44 45 42 42 39 40 39 38 41

GFSFLT1_850_spd_015.txt.gz
Wind_Speed
9 3 4 7 6 7 6 6 7 7 9 13 13 12 14 15 12 11 9 10 10 10 10 10 12 11 12 12 11 10 8 8 10
10 8 9 10 8 7 5 5 6 9 11 10 14 16 13 17 13 14 13 12 11 12 11 12 11 11 12 12 11 10 9 9 9
10 12 12 10 9 8 7 8 8 8 9 10 13 15 12 16 15 15 15 14 14 13 12 15 13 13 13 13 13 11 11 10 10
10 13 12 12 11 8 10 11 12 12 12 11 12 13 15 16 16 16 17 15 15 17 15 16 18 16 15 15 15 14 13 13 12
11 12 12 12 12 10 9 11 12 15 14 14 15 15 16 17 18 19 19 19 19 19 20 17 20 21 19 19 18 17 16 16 15
8 9 10 11 11 11 11 11 13 15 15 14 16 17 18 19 20 21 20 22 23 23 22 22 21 23 24 22 22 21 20 20 19
9 9 10 11 12 12 13 13 14 15 16 17 17 17 18 20 21 22 22 23 25 26 27 27 25 25 26 27 25 25 25 24 24
9 11 11 13 13 14 15 16 17 18 19 19 20 20 20 21 22 22 22 24 26 28 30 31 31 29 28 30 30 28 28 28 27
12 13 14 15 16 17 18 19 20 21 22 23 24 24 24 24 24 25 23 24 26 30 32 33 34 34 32 32 33 34 33 33 32
14 15 16 16 17 18 20 21 23 24 25 26 27 28 29 29 30 30 29 27 27 29 32 34 35 36 36 36 37 37 39 39 37
15 16 17 18 18 20 22 24 26 27 29 30 31 32 32 33 33 34 34 33 32 32 33 35 37 39 39 39 40 40 40 43 43
17 18 18 19 20 21 23 25 27 28 29 32 32 33 33 34 34 35 36 37 38 36 37 38 39 40 41 41 42 44 43 44 46
18 20 20 21 23 24 26 27 29 30 31 32 33 34 34 34 33 33 33 33 33 35 36 37 40 42 43 43 42 44 46 46 49
19 21 21 22 24 26 27 28 30 30 32 34 36 36 34 34 34 33 33 32 32 32 31 31 32 35 39 44 45 46 47 48 50
16 17 18 20 22 24 25 27 27 29 31 32 34 33 32 33 36 36 33 33 32 32 33 33 33 31 31 32 37 44 48 50 52
12 13 15 16 18 19 21 23 25 26 26 30 34 34 35 27 31 25 27 36 38 35 34 34 34 35 33 31 31 32 33 38 42
11 13 14 16 17 18 20 22 24 25 24 24 29 21 28 24 21 35 38 32 37 36 34 35 37 36 35 36 34 36 37 37 38
12 14 16 18 20 22 23 24 25 27 28 24 18 16 17 37 34 30 34 29 31 33 41 35 35 36 37 38 36 36 36 38 40
16 19 21 23 25 26 27 27 28 29 30 30 25 27 31 23 33 24 29 31 27 30 37 42 42 41 38 39 40 40 39 37 39
22 25 27 28 28 28 28 28 27 27 28 27 27 29 29 26 25 40 29 33 29 30 35 37 35 32 34 40 38 37 35 35 37

GFSFLT1_850_spd_018.txt.gz
Wind_Speed
11 8 4 7 7 7 6 5 7 8 7 13 14 11 13 17 10 11 11 12 13 12 11 12 15 16 16 16 14 13 13 12 12
10 14 10 11 10 7 5 5 6 7 9 11 11 15 17 17 10 13 13 12 16 14 14 13 15 14 14 14 13 13 13 12 12
13 14 13 14 10 8 8 8 9 9 10 10 11 13 14 15 13 14 15 17 16 16 15 12 17 16 15 15 15 15 14 13 13
11 11 12 11 11 10 6 8 10 12 14 15 15 13 14 15 14 16 16 18 17 17 18 16 16 20 18 18 18 17 16 16 16
10 11 12 11 11 11 9 7 10 12 15 15 15 15 17 16 15 16 17 20 19 20 21 20 20 20 22 23 21 21 20 19 19
8 8 9 10 10 10 10 10 11 11 14 13 14 16 15 14 15 16 20 21 22 23 24 24 23 23 23 26 26 24 24 23 23
8 9 9 10 10 11 11 12 13 14 13 12 16 14 13 15 17 18 20 20 22 24 26 28 28 28 27 28 29 30 28 27 27
9 10 11 11 13 12 14 15 14 14 15 15 15 16 17 17 19 22 23 21 21 24 27 29 31 32 33 32 31 33 33 31 31
9 11 12 12 13 13 15 15 15 17 18 18 19 20 20 21 22 25 30 27 26 26 27 29 31 33 34 36 35 35 36 37 36
10 11 12 13 14 15 15 17 17 18 19 20 22 25 26 27 28 29 34 35 32 31 32 32 33 34 35 37 38 39 38 39 40
11 13 13 15 15 17 19 20 23 25 24 25 26 27 26 27 28 29 31 36 36 34 35 36 37 38 38 38 39 40 41 41 43
13 14 15 15 16 20 21 21 21 21 22 23 23 24 25 26 28 27 27 27 32 31 28 30 34 37 40 41 42 43 43 44 45
13 14 15 16 20 20 20 19 20 20 20 21 23 24 25 27 26 26 26 26 28 30 33 30 30 32 35 38 40 43 45 47 47
12 13 14 16 16 16 18 20 20 22 21 23 25 25 27 26 25 26 26 26 29 30 30 31 32 31 32 33 35 40 45 48 49
7 9 11 13 14 13 16 17 17 17 19 21 23 24 25 25 23 23 22 23 24 26 28 28 30 34 32 32 31 34 37 39 47
9 11 13 15 16 18 20 19 20 19 19 22 25 24 23 18 24 21 19 27 29 29 28 32 30 29 31 33 35 32 31 33 37
12 14 15 17 18 20 22 23 24 21 19 21 26 22 28 19 19 31 31 25 30 29 27 28 31 32 35 33 36 36 34 34 35
14 16 18 20 22 22 22 21 20 19 21 17 16 20 21 34 29 27 28 22 25 30 31 29 30 33 35 37 38 40 41 40 40
18 21 22 23 22 22 22 21 21 18 18 19 17 20 24 29 35 21 28 25 23 30 34 33 33 34 36 34 36 37 38 41 39
22 24 25 25 24 23 22 22 21 17 17 17 19 20 21 24 29 37 29 34 30 32 34 34 32 32 34 38 37 33 33 36 35

GFSFLT1_850_spd_021.txt.gz
Wind_Speed
8 9 11 11 11 8 6 4 6 11 8 8 13 13 11 15 11 8 11 12 10 17 14 12 13 17 17 20 19 16 14 13 12
9 11 10 11 13 10 6 5 5 7 7 9 11 13 14 16 14 11 12 13 13 15 15 14 13 17 17 17 16 15 14 13 13
9 12 15 12 12 10 8 7 8 11 12 11 12 12 15 15 13 15 12 17 19 17 18 15 18 16 18 17 17 16 16 15 14
11 11 12 11 11 10 10 8 8 9 11 13 14 14 14 16 16 14 15 17 21 18 19 20 18 17 21 21 20 19 19 18 17
10 10 10 7 9 9 9 9 8 10 11 12 14 14 15 16 14 15 15 19 20 19 21 22 22 21 22 22 25 23 23 22 21
8 10 8 9 8 9 9 9 9 11 11 12 13 16 16 12 13 16 17 20 20 20 21 23 25 26 25 26 26 28 27 26 25
9 11 8 8 8 9 9 10 11 13 12 11 17 17 14 14 17 19 20 20 19 21 22 23 26 28 29 29 29 30 30 30 29
7 7 8 9 10 11 11 13 14 12 13 13 13 16 17 18 19 21 24 27 24 25 25 26 27 28 31 32 33 33 33 33 35
6 6 8 9 8 9 11 11 12 14 15 17 17 19 20 22 23 25 26 31 33 30 30 31 32 31 32 33 34 36 37 37 37
6 7 8 9 9 10 12 13 13 15 16 17 19 20 22 23 25 28 28 30 34 36 33 31 34 35 36 36 36 37 38 39 40
7 8 9 9 10 11 13 14 16 17 17 18 19 21 23 25 26 28 31 31 32 33 34 30 29 32 35 36 38 39 40 40 41
9 9 9 9 10 13 13 14 16 17 20 22 23 21 22 24 25 27 28 29 30 31 32 32 30 29 30 33 37 39 41 42 44
7 7 8 9 11 11 13 15 16 16 17 17 20 20 21 23 25 25 25 28 27 28 30 31 33 32 31 31 33 37 40 43 46
4 4 6 8 8 8 10 12 13 16 18 19 21 23 24 26 26 26 24 24 25 26 27 28 31 34 32 32 33 34 35 38 43
4 6 8 10 10 11 14 16 18 19 18 21 23 23 26 28 20 19 24 23 21 24 29 31 33 33 32 35 35 34 35 35 36
8 10 11 13 14 14 17 18 21 22 20 23 25 24 16 18 22 17 19 26 30 22 26 31 31 32 28 32 39 38 37 38 38
12 13 14 17 18 18 20 20 22 20 19 21 26 15 25 14 22 29 30 28 27 24 24 26 31 36 37 33 30 34 40 43 42
14 16 18 20 20 19 20 19 19 20 20 15 14 15 14 34 24 27 20 20 27 28 26 28 33 37 39 37 36 36 38 36 37
17 20 21 21 20 19 19 17 18 16 17 19 17 19 23 28 29 16 30 22 25 36 34 35 35 34 34 32 31 35 36 37 35
22 23 23 21 20 19 19 19 20 19 19 21 20 20 22 25 29 37 28 31 29 30 32 29 34 37 34 33 33 33 38 40 34

GFSFLT1_850_spd_024.txt.gz
Wind_Speed
5 7 9 9 11 9 6 3 4 8 12 12 10 13 15 16 13 9 6 11 12 13 17 14 14 17 17 17 18 17 17 15 13
6 6 7 11 12 10 8 5 4 5 7 8 9 10 12 13 13 13 9 10 16 15 15 15 16 15 17 20 20 19 18 16 14
6 9 10 10 10 9 9 8 7 8 8 9 9 10 11 12 12 12 11 10 15 17 18 17 18 18 18 18 19 19 19 18 16
8 9 8 7 7 7 7 7 7 7 8 10 11 12 12 14 14 13 12 12 14 17 17 18 19 21 20 18 21 21 21 20 19
5 8 6 4 6 6 6 7 7 8 9 10 11 11 14 16 15 12 11 12 13 17 18 19 21 22 23 23 22 24 25 24 23
9 8 8 8 7 7 8 8 9 10 11 12 10 15 17 15 15 16 16 19 19 19 20 21 21 23 25 26 26 26 27 28 27
8 12 11 8 8 8 9 9 11 12 12 12 13 17 18 19 21 23 23 23 24 25 24 24 24 24 26 27 28 29 29 30 31
6 9 11 11 11 11 11 14 15 16 18 19 18 19 20 20 23 24 25 27 27 31 32 30 30 30 29 29 30 31 32 33 34
6 6 8 12 14 14 14 15 15 15 17 19 20 21 23 24 26 26 27 29 28 31 33 34 34 32 32 33 33 33 33 34 35
4 8 10 10 11 13 14 15 15 16 18 19 19 20 22 23 25 27 27 28 29 30 31 32 32 30 29 32 35 35 35 35 36
8 8 6 8 10 12 11 14 16 17 18 20 22 25 25 25 25 27 29 30 31 30 29 30 31 30 29 29 31 35 38 39 38
6 7 7 7 9 12 14 16 17 16 17 18 20 21 23 24 24 25 26 26 26 27 27 26 29 31 33 31 31 33 34 37 40
5 3 8 10 12 10 11 11 12 14 16 18 19 22 24 27 28 28 26 26 23 23 26 29 26 27 29 31 31 31 33 34 36
4 4 4 2 4 6 10 13 16 19 21 22 23 24 26 28 26 24 24 22 21 20 20 20 24 29 31 35 33 32 33 34 34
2 2 4 7 9 12 15 18 19 21 22 25 26 27 26 14 15 20 19 23 28 27 29 32 33 29 27 26 24 26 29 34 36
6 8 10 11 13 15 18 21 23 23 22 26 29 28 12 17 22 17 28 31 31 32 29 25 26 29 31 34 35 38 37 36 33
9 12 14 16 17 19 19 20 21 20 20 20 24 16 27 6 30 24 32 15 17 23 31 32 32 34 37 39 42 43 45 42 35
13 16 18 20 20 20 19 19 19 21 20 19 15 12 9 39 16 33 15 19 34 25 31 36 37 37 31 30 33 36 35 35 33
16 20 22 22 21 19 18 18 18 19 21 22 21 19 23 26 26 15 34 25 36 37 34 36 29 28 34 39 33 29 29 31 31
19 23 23 23 21 19 18 19 19 21 21 22 24 28 27 29 30 38 29 39 32 33 34 30 35 35 36 32 33 36 34 36 33

GFSFLT1_850_spd_027.txt.gz
Wind_Speed
5 4 6 8 10 9 7 4 3 4 6 9 9 8 10 12 12 11 9 10 8 11 17 15 13 15 18 17 17 17 18 16 16
5 6 6 9 8 7 7 3 3 3 4 5 6 7 8 9 10 11 9 11 11 11 13 15 14 14 16 18 22 21 20 19 17
5 5 8 8 7 6 6 6 6 6 6 6 7 8 10 11 12 12 12 10 12 11 14 16 16 17 17 19 19 21 21 20 19
5 5 7 6 6 7 6 6 7 7 7 8 9 10 10 13 14 13 10 8 9 11 15 16 16 17 19 19 19 20 22 21 22
1 3 3 5 6 7 7 7 8 8 9 10 10 9 11 13 13 13 13 13 13 15 14 18 18 18 19 21 22 22 23 25 25
1 4 6 8 8 8 8 8 9 9 10 10 10 12 14 16 16 17 19 21 21 20 21 22 23 23 23 23 23 25 25 26 26
5 8 9 8 9 8 8 8 10 10 11 12 13 15 16 18 19 20 21 22 23 24 25 28 28 28 28 28 27 26 26 27 28
9 7 6 8 9 9 10 11 12 13 14 15 17 19 20 21 22 22 23 23 24 24 25 27 30 29 28 27 27 29 29 29 28
3 5 7 10 11 13 13 13 14 14 14 15 17 17 18 19 20 22 22 24 24 25 25 27 28 29 29 28 27 29 32 32 32
7 6 8 7 8 9 10 11 12 15 18 17 18 18 19 22 24 23 24 25 25 26 28 28 27 28 28 28 27 28 30 33 36
10 10 6 7 8 9 11 13 16 16 16 16 17 17 17 17 19 19 20 22 23 22 21 21 25 23 26 27 26 27 29 31 32
6 4 4 7 10 13 17 16 16 16 15 16 17 18 19 21 21 23 22 22 19 20 21 21 22 24 24 24 24 26 32 32 30
5 4 7 11 13 13 12 12 13 15 17 20 20 21 22 22 22 24 22 20 18 18 19 19 20 20 23 25 24 24 31 33 33
5 4 6 7 7 9 11 14 17 20 22 24 24 24 22 19 17 14 12 15 19 22 24 27 27 28 27 29 27 26 24 26 28
1 1 3 6 10 13 15 18 19 20 22 23 23 22 13 12 13 17 18 18 25 26 23 22 24 26 28 28 30 33 34 36 37
3 6 9 12 15 17 19 20 20 20 22 25 28 24 17 11 6 13 23 25 22 16 22 26 31 29 30 32 35 39 40 38 31
6 9 13 16 18 18 19 19 19 18 19 22 22 15 22 5 35 16 30 24 16 24 30 33 34 32 32 29 28 30 33 36 33
9 13 16 18 19 18 17 17 18 20 19 19 14 10 9 39 16 34 19 16 30 28 37 34 34 30 27 29 33 35 34 29 27
12 16 19 20 19 17 16 16 16 19 21 23 21 17 21 17 21 20 41 28 37 39 39 37 33 28 35 30 29 29 28 30 31
14 18 20 20 18 16 16 16 18 20 21 22 25 26 29 29 27 32 29 39 40 42 38 41 33 34 32 38 32 32 33 34 36

GFSFLT1_850_spd_030.txt.gz
Wind_Speed
5 3 4 7 6 5 3 1 2 3 5 7 8 8 7 9 10 9 8 10 8 9 9 16 13 11 13 16 16 17 18 18 17
5 4 5 6 5 5 5 3 2 3 3 4 5 6 7 8 9 10 10 9 11 10 9 12 15 12 13 15 16 18 19 20 21
7 4 5 5 4 5 5 5 5 6 6 6 7 7 8 9 10 11 11 9 9 11 10 12 14 14 14 15 17 19 19 20 19
3 3 3 3 4 5 6 6 6 7 7 8 9 9 9 11 11 10 10 10 11 11 11 10 15 15 15 16 17 19 19 22 22
2 1 1 4 5 6 6 6 6 6 7 7 7 8 10 12 12 13 12 13 14 15 14 13 15 18 20 20 19 19 21 22 22
3 1 3 4 5 5 5 5 5 6 6 6 8 10 11 12 14 15 15 16 17 18 17 19 20 20 21 22 23 24 23 23 24
0 3 3 3 5 5 5 6 6 7 7 7 9 11 14 16 15 16 17 18 19 20 18 21 23 24 23 22 24 23 24 25 26
3 3 4 4 6 6 7 8 8 9 10 11 12 12 13 15 16 16 17 18 18 18 20 22 23 24 25 25 25 23 22 26 28
3 3 4 6 8 9 9 10 10 10 12 16 17 16 17 17 18 20 19 18 19 20 22 23 25 26 25 25 27 28 26 26 27
7 7 6 7 7 8 9 10 12 14 17 19 20 19 20 20 19 18 18 20 22 24 24 25 21 20 21 21 23 25 23 23 25
10 10 11 8 9 10 13 15 18 19 18 20 19 18 18 19 20 20 20 20 22 22 21 21 21 20 20 21 24 24 22 24 24
10 8 6 9 10 13 16 16 19 19 17 18 19 20 21 22 23 24 25 25 22 20 18 17 16 17 18 19 20 19 22 24 26
8 7 7 10 12 14 16 14 15 17 20 21 22 22 20 20 20 20 17 14 13 14 18 20 21 20 21 21 22 25 25 27 28
7 6 8 9 9 11 13 16 18 21 22 22 21 19 17 14 11 10 9 13 17 19 22 21 19 20 22 24 26 27 28 30 31
5 3 4 7 10 13 15 17 18 19 21 21 20 18 11 11 18 13 12 18 20 23 21 17 21 25 28 29 29 29 30 30 28
2 3 7 11 14 17 18 17 17 16 19 22 23 18 9 9 5 11 16 23 20 16 17 26 30 29 29 28 28 30 31 31 29
1 6 10 14 16 18 18 17 15 15 19 22 19 13 17 4 23 11 28 20 23 26 28 29 31 30 29 28 27 30 31 31 29
5 9 13 16 18 17 15 15 16 17 17 18 12 9 7 34 13 34 24 33 29 34 32 33 32 30 31 29 33 29 32 29 27
8 12 16 18 17 14 13 14 15 17 18 19 16 14 16 13 20 26 41 34 41 39 38 36 34 36 30 32 32 32 27 32 32
10 14 17 17 14 13 13 14 15 17 19 20 23 24 25 24 20 31 34 44 43 42 37 38 39 33 34 32 33 32 34 28 28

GFSFLT1_850_spd_033.txt.gz
Wind_Speed
4 2 4 5 5 5 4 2 1 2 3 4 5 5 6 7 7 7 8 9 9 10 9 10 13 11 11 12 13 14 15 17 17
5 1 4 5 4 5 6 5 4 3 2 2 3 3 5 7 8 9 9 9 8 8 10 9 12 12 12 12 13 15 17 18 18
8 3 3 4 3 4 5 5 5 5 6 5 5 5 6 7 9 9 9 8 9 8 9 10 11 13 13 13 15 15 17 19 20
6 3 1 2 3 3 4 5 4 4 4 5 5 5 6 8 8 8 9 9 10 11 12 11 10 12 14 15 15 14 15 20 18
5 3 2 2 3 3 4 4 4 4 4 4 4 6 7 8 8 9 9 10 11 12 13 13 11 13 17 19 19 19 19 17 21
4 3 1 2 3 4 4 4 4 5 5 5 6 7 8 10 11 11 11 12 13 14 15 15 15 17 20 20 19 20 21 22 22
3 1 1 2 2 3 4 5 6 6 7 7 8 10 11 12 12 12 13 14 14 16 17 17 18 20 22 23 22 23 22 21 20
1 1 1 1 3 5 5 6 7 8 9 11 14 15 16 15 16 17 18 19 19 17 18 18 19 21 21 22 22 24 26 26 25
2 2 3 3 5 6 7 9 9 9 12 16 18 20 19 19 20 21 21 21 21 22 23 25 26 27 28 25 22 23 23 22 24
5 6 5 6 6 6 9 10 12 15 18 19 20 20 20 20 19 20 20 21 21 20 21 22 23 23 22 20 19 15 20 19 19
5 8 8 8 7 10 12 15 18 19 20 21 21 20 20 22 22 24 24 24 24 24 22 21 20 19 18 19 20 19 20 18 20
9 7 6 5 8 11 14 17 20 21 20 20 21 22 23 24 24 24 23 22 21 19 18 17 17 18 18 20 21 22 24 22 23
10 10 8 8 9 13 16 16 18 21 23 24 23 22 22 22 20 18 17 15 15 15 17 18 19 21 22 23 24 25 26 28 30
9 8 8 7 7 11 15 18 21 23 23 22 21 19 19 17 14 11 12 14 16 19 22 22 22 22 23 25 27 28 30 32 34
8 6 5 6 9 13 16 18 19 20 21 21 20 18 15 13 14 15 10 14 22 23 20 22 23 24 29 30 29 30 31 33 34
6 4 5 8 12 16 18 18 16 16 19 22 21 13 6 19 13 11 18 20 27 19 26 27 29 31 30 30 29 30 31 30 28
5 4 7 11 15 17 17 16 15 15 19 21 19 12 15 5 9 25 16 28 23 30 26 30 29 30 31 30 32 33 32 32 26
4 6 10 14 16 16 15 14 15 15 15 17 11 8 6 33 13 27 25 28 32 35 34 33 33 31 33 34 33 33 33 28 27
5 8 12 15 15 14 13 13 15 16 18 17 15 14 17 13 18 19 40 34 42 42 40 37 35 37 35 33 33 33 32 32 31
6 10 14 15 14 13 12 13 15 17 18 19 21 22 22 19 17 34 39 47 46 46 40 42 39 36 34 34 34 31 31 28 29

GFSFLT1_850_spd_036.txt.gz
Wind_Speed
2 2 5 6 6 6 5 4 3 2 2 2 2 2 3 5 6 6 6 7 7 7 7 7 8 9 8 9 10 12 11 13 14
3 2 4 5 6 6 7 7 5 4 2 2 2 2 3 4 5 6 6 6 6 5 5 7 7 10 10 11 12 11 15 19 20
7 4 3 3 4 5 5 5 5 4 5 4 4 3 4 5 5 6 6 7 6 6 7 8 6 10 10 10 10 13 16 15 18
4 4 2 2 3 3 4 4 3 3 3 4 4 4 5 5 5 6 6 6 7 8 9 10 10 8 10 12 13 13 13 14 19
7 4 2 1 2 2 3 3 3 3 4 3 4 5 5 7 8 8 8 9 9 11 12 12 12 12 12 13 16 16 16 17 17
4 3 1 1 2 2 3 3 3 4 3 4 5 7 9 11 11 11 11 11 12 12 16 16 17 17 17 17 20 20 19 19 19
5 3 2 2 1 1 2 3 3 5 5 6 8 10 13 13 14 14 14 15 16 16 17 19 19 17 16 18 18 19 20 21 21
3 3 3 3 1 3 4 4 6 7 8 9 12 15 16 17 17 18 19 19 19 19 19 20 20 21 22 23 24 22 21 21 23
3 3 3 4 4 5 6 5 6 7 11 14 16 17 18 19 20 19 19 19 19 19 19 19 19 19 19 17 18 22 20 20 18
5 5 5 5 5 5 6 8 9 13 15 17 17 19 20 20 20 21 22 22 22 20 21 21 21 21 20 20 21 20 18 21 22
6 5 7 7 7 6 9 10 14 15 17 19 19 19 21 22 23 24 23 23 21 20 20 20 20 21 19 19 19 20 22 23 23
6 7 6 6 7 9 12 14 17 17 16 18 19 21 22 23 23 23 21 19 17 17 16 16 17 17 18 20 22 23 25 26 28
6 9 9 9 11 12 12 14 17 20 21 22 21 22 22 22 20 18 16 14 13 14 16 19 21 22 23 24 25 26 27 30 31
7 13 10 10 9 10 13 17 21 23 23 21 19 18 18 17 16 13 12 14 16 16 20 23 23 24 26 27 28 28 30 32 34
11 10 7 7 9 12 15 18 20 21 21 19 16 16 13 12 11 13 16 14 16 21 23 23 26 27 28 30 31 31 33 34 34
10 7 6 7 10 14 17 18 17 18 20 21 19 10 4 14 14 10 14 19 26 24 22 28 28 29 29 30 31 32 34 34 34
9 7 6 8 13 16 17 16 16 17 20 21 19 11 11 3 3 24 20 21 24 29 26 30 30 29 28 30 33 34 35 34 30
9 6 6 10 14 16 17 16 16 15 17 18 13 8 6 31 9 29 16 25 30 32 35 35 32 33 33 32 33 33 34 33 27
8 5 8 11 14 15 15 15 16 17 17 16 15 14 16 12 18 18 37 31 41 41 40 37 38 32 32 32 33 34 34 32 29
6 6 9 12 13 14 14 15 16 17 18 19 20 20 19 18 18 34 39 46 45 44 43 40 34 35 34 33 34 33 28 28 32

GFSFLT1_850_spd_039.txt.gz
Wind_Speed
4 5 6 6 7 7 5 5 5 5 5 4 2 1 1 3 3 4 4 4 4 3 4 5 9 10 12 8 8 12 12 12 15
0 4 5 5 6 7 7 6 4 3 2 1 1 1 1 3 3 3 4 3 4 4 3 4 6 8 11 9 10 11 13 16 16
4 4 3 3 5 5 5 4 3 3 3 2 2 2 2 2 3 3 3 3 4 5 5 6 7 7 11 10 9 9 11 14 16
4 3 1 2 3 3 3 3 3 3 3 2 2 2 2 3 3 4 5 6 6 6 8 9 10 9 9 11 12 11 11 12 14
7 5 2 1 2 2 2 2 2 2 2 2 3 4 5 6 8 9 10 10 9 10 11 14 15 16 15 15 15 16 16 16 15
8 6 4 3 2 2 2 1 2 2 3 4 6 7 9 10 11 11 10 10 9 11 13 15 14 15 14 13 15 17 20 20 20
8 6 4 3 2 1 1 2 3 4 5 6 8 10 13 13 14 14 14 14 14 15 16 17 18 17 16 16 17 19 20 19 20
6 5 4 4 2 2 3 4 5 7 7 8 12 14 17 15 16 17 16 16 15 15 15 15 15 16 18 19 20 21 21 20 21
5 4 4 4 3 3 4 4 5 7 10 13 16 17 17 18 18 18 18 18 18 17 17 17 17 18 17 19 20 20 21 22 22
3 3 4 3 4 3 4 7 9 11 14 16 18 20 19 18 18 20 21 20 18 18 17 18 19 19 19 19 21 21 21 23 24
3 5 5 6 7 7 8 9 12 14 15 17 18 19 20 21 21 21 20 18 16 15 15 15 15 15 15 17 18 19 20 21 23
6 5 6 6 6 7 10 13 14 15 15 17 20 21 20 20 20 18 16 14 13 13 12 13 14 16 18 19 21 21 22 24 27
8 6 7 9 8 9 10 11 15 18 19 19 20 20 19 18 15 13 11 10 10 12 13 15 18 20 21 22 23 25 25 27 29
9 6 9 8 7 7 10 14 17 19 19 17 16 16 15 14 12 10 9 10 12 14 15 20 21 24 26 26 27 28 27 28 31
10 8 8 7 6 9 12 15 17 17 17 15 14 13 10 10 9 9 12 16 16 18 22 24 26 28 29 29 28 29 29 30 32
10 8 8 6 7 10 12 13 14 15 17 16 15 8 4 13 12 11 11 19 20 23 23 27 28 29 27 27 28 30 30 31 32
9 10 8 7 8 10 12 13 14 16 18 18 14 7 7 2 8 20 22 24 12 23 25 28 27 27 29 28 28 30 31 32 33
11 10 8 7 8 11 12 13 14 14 16 16 12 7 4 24 6 22 15 20 26 30 31 29 31 28 28 30 30 31 31 32 30
13 10 7 7 9 11 13 14 14 14 14 15 15 13 13 9 13 15 28 26 36 35 32 35 28 30 29 30 30 30 32 32 29
13 9 7 8 9 11 13 14 14 15 16 16 16 16 17 16 15 23 29 38 37 35 40 32 34 33 31 31 34 36 31 29 28

GFSFLT1_850_spd_042.txt.gz
Wind_Speed
6 6 6 6 6 5 6 8 9 9 9 7 4 3 1 2 5 5 5 5 5 5 4 6 7 9 12 14 9 9 13 12 13
4 5 5 4 6 7 6 5 5 3 4 2 0 3 1 3 4 5 6 6 6 6 5 6 7 7 9 11 10 10 12 14 15
3 2 2 3 4 5 5 4 3 3 2 2 2 2 1 3 5 5 6 7 8 9 8 8 9 9 9 11 10 10 9 10 14
6 3 1 2 3 3 3 2 2 2 1 1 1 2 3 4 5 7 7 10 10 10 12 12 14 15 15 13 13 13 12 11 12
7 5 4 2 2 2 2 2 2 1 1 2 3 4 5 5 7 7 9 10 9 10 11 13 14 12 12 13 16 17 18 18 17
8 8 5 3 2 1 1 1 1 2 4 4 5 6 5 6 7 7 11 12 11 13 15 16 17 16 16 15 15 14 14 15 18
11 8 6 5 3 2 2 2 2 3 3 5 6 6 8 9 11 12 13 13 14 15 16 16 16 17 16 16 17 18 19 19 20
8 7 5 5 4 3 3 3 2 5 4 7 11 12 14 13 14 17 15 13 14 14 15 15 15 16 16 17 17 17 18 20 20
6 5 5 5 4 4 3 4 5 8 10 11 15 15 16 17 17 18 15 15 15 15 14 16 17 17 17 18 20 20 20 21 21
6 5 4 5 6 5 5 7 9 11 13 15 16 18 18 17 18 18 18 16 16 15 16 17 17 17 17 18 19 19 19 19 20
6 5 5 7 8 8 8 11 11 13 14 16 18 19 20 20 19 17 18 14 15 15 15 15 15 14 15 16 18 19 20 21 22
9 8 6 7 8 10 10 11 12 13 15 17 19 19 19 18 17 14 12 12 13 13 13 13 14 14 16 19 21 23 24 25 26
12 10 8 6 8 10 10 10 11 14 16 17 17 16 16 14 12 11 10 10 11 13 14 16 17 18 21 22 24 25 26 25 26
14 12 9 7 8 9 7 9 13 15 16 15 15 16 14 11 10 9 9 9 12 15 18 18 21 24 24 26 26 26 26 27 26
15 14 10 8 8 7 7 11 14 15 14 13 13 13 10 9 9 9 10 13 14 19 20 23 25 28 27 27 27 27 27 28 27
17 15 10 9 8 6 8 11 13 13 14 12 12 8 7 12 10 10 13 16 21 22 17 25 26 28 28 27 26 26 27 28 28
16 14 11 10 7 7 8 10 12 13 14 12 8 4 5 4 5 19 12 16 18 19 23 27 25 26 26 25 27 27 28 29 29
15 14 12 10 7 7 8 9 10 12 13 11 6 4 4 13 7 12 15 11 20 22 25 25 26 25 25 27 28 30 30 31 32
16 14 13 9 7 7 8 9 10 10 10 11 11 8 9 5 10 8 13 16 20 21 24 24 28 24 25 28 29 28 34 36 33
18 15 12 8 7 7 8 10 10 10 10 11 12 12 11 9 8 19 14 21 20 21 18 25 20 20 23 23 21 25 29 29 28

GFSFLT1_850_spd_045.txt.gz
Wind_Speed
7 7 6 6 5 6 11 11 11 9 10 9 5 3 2 7 6 6 8 8 8 9 8 6 5 6 8 10 11 8 10 11 11
6 5 5 5 6 7 6 5 4 4 4 3 2 2 2 6 4 4 5 7 8 9 8 8 8 9 9 8 8 9 10 11 12
3 2 3 3 5 5 5 4 3 2 1 1 2 2 3 6 4 5 6 9 9 10 9 9 11 12 13 12 10 9 10 11 10
3 3 1 2 2 3 3 3 3 2 2 2 3 3 4 6 4 6 5 11 10 10 10 8 10 11 12 12 13 13 13 13 13
7 5 3 1 1 1 2 2 2 2 2 3 4 5 7 8 6 5 9 10 10 10 12 14 13 14 14 15 14 12 13 16 18
4 6 3 2 1 1 1 1 2 3 5 6 5 6 5 6 7 9 11 11 11 13 14 15 16 16 15 16 15 14 15 15 16
10 7 5 3 2 1 1 2 4 6 4 8 8 5 5 6 6 11 12 13 12 13 14 14 14 14 14 14 15 15 15 17 18
9 3 4 2 2 3 5 6 2 4 3 6 6 7 6 6 7 16 14 13 13 13 14 16 16 15 15 15 17 17 17 18 18
7 6 6 5 1 4 3 7 6 6 8 9 8 11 13 13 12 16 16 15 14 13 15 17 17 17 16 17 18 19 19 19 19
8 8 5 5 7 7 7 7 8 8 8 11 13 14 14 15 14 16 19 16 14 16 17 17 17 17 16 16 16 17 17 18 19
10 9 9 5 7 9 9 8 10 10 10 12 14 15 15 16 16 11 19 16 15 15 16 16 15 14 14 15 17 19 21 22 23
13 11 8 6 6 9 11 10 10 10 12 14 15 14 14 14 14 11 9 15 11 13 13 13 14 15 17 17 19 21 22 23 24
14 12 11 8 6 7 8 8 9 11 12 13 12 13 13 11 10 9 9 10 11 13 12 15 17 18 19 22 23 23 25 25 25
17 15 13 11 8 7 7 7 9 11 12 12 12 13 13 11 8 8 10 10 11 14 17 18 19 21 22 23 23 24 24 25 26
19 17 14 12 9 8 7 8 9 10 12 11 10 13 10 9 8 8 8 12 13 15 19 19 18 23 26 25 25 24 23 24 25
21 19 15 13 10 8 7 7 9 11 11 10 8 10 10 10 10 8 8 12 16 18 16 18 22 24 23 25 25 24 25 26 27
23 20 16 13 11 8 6 6 9 11 11 9 8 3 7 8 6 9 16 11 16 12 18 22 23 22 23 22 23 26 27 28 28
23 19 16 14 11 8 6 6 8 10 11 9 4 3 3 13 10 13 11 14 14 20 24 24 23 24 26 23 25 28 29 27 28
24 20 17 14 11 8 6 7 8 8 9 11 8 6 9 4 9 7 9 15 19 21 25 26 25 26 22 23 27 27 28 31 32
23 20 17 14 11 8 6 7 8 9 9 9 9 10 9 9 10 16 11 20 19 23 20 21 27 24 22 26 25 19 24 27 29

GFSFLT1_850_spd_048.txt.gz
Wind_Speed
8 8 7 7 6 7 10 8 7 5 7 8 6 2 5 8 7 6 7 7 9 9 8 8 7 7 7 6 6 7 6 9 8
8 7 7 8 9 8 8 6 6 5 3 2 3 4 8 10 7 1 6 6 8 9 8 8 9 9 10 9 8 7 6 7 8
6 5 5 6 7 7 6 5 4 3 2 3 4 5 5 7 5 5 6 7 10 10 8 6 6 8 9 10 10 9 8 10 10
3 3 3 4 4 4 4 4 3 3 3 4 4 5 7 8 5 3 4 9 9 7 8 8 10 10 10 10 9 8 10 11 12
5 4 2 3 3 3 3 3 4 3 4 4 5 6 8 6 4 5 7 11 10 10 11 11 11 12 12 11 10 10 10 9 9
9 6 4 3 3 3 3 3 4 4 6 7 6 7 5 3 6 7 9 10 10 10 11 11 11 11 11 11 10 10 11 12 13
6 4 4 3 3 3 2 3 5 5 2 2 4 1 2 5 9 10 9 11 11 11 12 12 12 13 13 14 14 14 13 14 15
11 6 6 4 3 3 3 2 3 2 4 5 4 4 5 6 11 14 14 13 12 12 15 15 15 15 15 17 17 16 17 17 17
15 8 5 4 6 4 4 4 5 5 4 6 7 9 10 12 13 16 16 15 13 13 16 15 15 15 16 18 17 16 16 16 16
9 12 9 10 9 11 9 7 6 6 5 8 10 10 12 12 14 16 17 15 14 14 15 15 15 15 15 15 14 14 15 16 17
13 13 12 11 9 8 10 9 6 6 6 8 11 13 14 15 14 15 16 14 12 13 13 13 13 13 13 14 16 17 17 19 20
17 14 12 11 7 7 9 9 9 7 6 10 11 13 13 11 14 12 14 14 11 10 10 11 12 14 16 16 17 20 22 22 21
20 16 15 13 10 6 7 7 6 6 8 9 10 11 11 11 11 10 12 13 12 11 10 12 14 17 18 19 20 21 22 22 22
20 18 16 14 11 8 8 7 6 6 7 9 10 12 12 11 9 10 10 9 11 14 16 15 19 18 18 20 21 21 21 22 22
22 20 18 16 13 10 9 7 6 6 7 8 9 11 11 10 9 10 10 12 11 16 18 20 19 18 23 23 22 24 22 22 23
26 22 21 17 15 12 10 8 7 6 7 7 8 8 8 9 10 7 8 12 19 17 21 18 21 23 25 22 23 25 23 25 25
27 25 23 19 15 13 11 8 7 6 6 7 7 3 7 8 8 15 14 16 16 20 19 23 25 25 24 24 26 23 25 27 26
30 28 24 20 16 15 11 8 8 7 6 7 4 2 3 10 8 9 14 14 18 21 23 28 29 27 26 27 25 26 29 28 27
29 27 24 20 17 15 12 9 6 7 8 8 6 6 7 5 7 6 10 14 18 22 28 28 27 29 27 27 26 28 28 27 27
30 28 24 20 18 15 11 8 6 7 8 8 9 9 8 8 9 19 18 20 23 25 24 26 28 26 27 27 29 28 28 26 27

GFSFLT1_850_spd_051.txt.gz
Wind_Speed
10 9 8 8 10 13 13 11 9 7 6 5 1 5 8 9 6 4 5 5 7 7 6 6 7 6 6 5 5 5 4 4 5
11 10 10 10 9 10 9 7 6 5 2 3 5 9 11 9 6 2 6 5 7 7 5 4 4 5 5 6 6 6 5 4 5
10 10 10 10 10 10 8 7 6 5 5 6 8 9 8 9 4 3 3 3 7 5 3 2 4 5 5 6 5 5 6 5 7
7 8 8 8 8 8 8 8 7 7 7 7 7 8 10 5 1 1 4 7 10 9 6 6 7 7 7 6 6 5 4 3 6
6 5 6 6 6 6 7 7 7 6 6 6 7 8 6 0 2 4 5 9 11 10 7 7 7 6 7 7 6 6 7 7 8
8 6 6 6 6 6 7 7 7 6 5 7 9 6 3 3 5 8 10 10 11 10 8 7 7 7 8 8 8 8 9 9 9
7 7 6 5 6 6 6 7 6 4 6 3 4 4 4 7 11 11 9 10 11 10 10 9 9 10 10 10 11 11 11 11 12
8 6 6 6 7 7 6 6 5 2 3 4 4 5 7 9 11 13 13 11 9 10 13 12 10 11 12 12 13 13 13 12 12
11 8 8 8 8 8 6 5 5 4 7 7 7 7 10 11 12 13 13 12 10 14 14 12 11 11 12 12 12 11 11 11 12
13 13 10 10 10 11 7 7 8 8 7 6 7 8 9 11 12 13 12 12 10 11 11 11 10 10 10 11 11 12 13 14 14
16 16 12 11 10 8 13 14 10 8 7 7 8 10 11 12 12 12 12 11 9 9 9 10 9 9 10 12 14 15 15 16 19
18 15 15 15 16 15 14 14 10 7 6 7 9 9 9 11 12 11 12 10 9 8 8 9 10 11 12 15 16 17 19 19 18
21 20 16 19 18 14 12 11 10 8 6 7 8 9 8 9 11 10 10 9 8 8 9 10 13 13 15 14 15 17 19 19 19
24 23 20 21 19 14 11 10 10 7 6 7 8 8 8 8 8 8 9 10 11 10 13 14 15 16 15 17 19 19 20 20 20
28 25 24 22 19 15 12 12 10 8 6 7 7 7 7 5 6 8 8 7 9 13 17 16 15 16 20 21 20 19 22 23 20
29 29 28 25 21 17 14 14 12 8 6 6 7 7 6 6 5 4 8 11 12 16 16 18 19 20 22 22 19 22 23 21 21
31 30 29 26 24 20 16 15 13 10 6 6 6 4 7 5 6 9 9 10 14 15 17 19 22 25 24 23 25 22 23 22 21
32 31 31 28 24 21 17 16 13 10 7 5 4 4 4 7 7 8 9 12 15 16 18 21 26 26 25 25 24 24 23 24 19
34 32 32 29 25 22 19 17 14 10 9 7 7 7 8 5 4 8 12 14 16 19 20 25 23 23 24 23 25 24 25 25 21
35 33 31 30 27 22 18 16 13 11 9 8 8 8 8 10 10 14 12 16 20 22 21 22 22 19 19 22 23 24 25 24 24

GFSFLT1_850_spd_054.txt.gz
Wind_Speed
9 8 8 11 13 14 15 13 10 6 3 3 1 7 7 6 6 7 8 7 8 6 5 7 6 4 4 4 3 3 2 2 3
9 9 10 11 13 13 11 9 8 5 2 4 7 8 9 6 7 4 5 6 7 5 3 2 2 3 3 5 4 4 3 3 3
10 10 10 10 10 10 8 6 5 5 7 8 10 11 8 6 5 3 4 3 5 5 5 4 5 5 5 5 3 3 3 4 6
9 10 10 10 10 10 9 8 8 8 9 10 10 9 8 5 3 2 1 5 7 9 7 6 7 6 6 5 4 5 5 3 4
9 9 9 9 8 9 9 9 9 8 8 9 11 10 7 3 3 2 4 8 10 10 7 5 4 4 6 6 6 6 5 6 6
9 8 8 8 8 8 9 9 9 8 7 9 10 8 5 3 5 5 7 10 11 11 8 6 6 7 7 7 8 8 8 8 8
10 9 9 8 8 9 9 8 8 6 7 8 7 5 5 5 6 9 9 10 11 10 9 7 8 9 9 9 9 10 10 10 11
12 11 9 9 9 10 9 8 7 5 7 5 6 5 6 7 9 10 11 11 9 8 10 8 8 8 9 10 10 10 10 10 9
12 11 9 9 10 10 8 8 8 6 6 7 7 8 9 11 12 12 11 10 10 12 11 9 8 8 10 10 9 9 10 10 10
15 13 11 12 13 12 9 8 8 7 8 9 9 9 10 11 12 11 10 10 10 10 10 8 8 8 8 9 9 10 11 13 13
15 14 15 14 14 11 11 9 10 10 11 10 10 10 10 11 11 11 9 8 8 7 7 7 7 7 9 11 12 13 13 15 15
16 17 18 15 15 14 13 13 13 13 12 10 10 11 10 11 10 10 9 8 7 6 6 6 7 8 9 13 12 14 15 16 15
18 21 19 17 16 14 14 14 15 14 12 10 10 10 9 10 10 9 8 7 6 7 6 7 11 10 12 12 12 16 17 17 16
23 24 20 18 19 17 17 15 14 13 11 10 10 9 9 9 7 7 7 7 7 7 8 11 10 11 11 13 15 16 17 18 19
26 24 24 23 21 21 19 15 14 14 12 10 9 9 9 7 7 6 6 7 8 9 12 10 11 12 14 17 17 17 17 20 21
27 27 28 27 25 23 20 17 15 15 13 11 10 10 9 8 7 7 7 9 10 11 12 14 14 16 19 20 19 19 19 18 19
29 28 31 30 28 27 23 19 17 17 15 11 10 7 8 11 9 9 10 10 11 13 14 16 18 21 23 21 22 21 19 20 18
31 30 30 33 32 28 24 20 19 18 16 13 10 6 6 6 10 11 13 13 14 15 16 19 21 25 23 24 23 22 22 21 17
33 33 36 34 32 28 25 22 20 18 17 14 13 12 11 6 5 9 12 14 15 16 18 22 24 23 23 22 22 24 22 21 18
35 35 37 36 33 30 28 25 21 19 18 15 12 12 11 12 12 10 11 14 16 20 21 20 22 21 21 21 24 23 23 23 22

GFSFLT1_850_spd_057.txt.gz
Wind_Speed
6 6 7 12 13 17 18 14 12 7 3 2 4 6 4 5 6 9 9 10 10 9 8 8 8 5 5 6 4 5 5 4 3
7 7 9 11 12 14 13 10 8 5 2 4 8 6 6 5 6 7 7 9 8 6 3 3 3 4 5 7 5 5 5 4 5
8 8 9 10 11 11 10 8 6 5 6 7 9 7 5 5 4 3 5 4 3 4 5 5 5 4 3 3 1 3 5 1 1
10 9 9 10 10 10 8 8 8 9 9 9 9 8 5 4 2 2 1 4 6 7 7 6 3 3 5 6 5 6 7 5 5
10 10 9 9 9 9 9 9 9 10 10 10 8 8 6 3 2 1 3 6 10 9 7 3 5 7 7 6 6 6 6 6 7
11 10 9 9 9 9 9 9 9 9 8 9 8 6 4 3 4 4 5 9 10 10 8 6 7 8 7 7 8 8 9 10 9
11 10 11 10 10 10 10 10 9 8 7 7 6 4 4 4 5 7 8 9 10 11 9 8 9 9 9 9 9 10 10 11 11
15 13 13 12 12 12 11 10 9 8 7 6 6 6 5 5 7 8 9 11 8 11 11 8 9 10 9 9 9 9 9 8 8
16 15 13 12 12 12 11 10 9 7 7 7 7 7 7 8 9 10 10 10 11 13 12 8 7 8 9 9 8 8 9 9 9
16 15 13 13 13 13 11 10 9 8 7 8 8 8 8 9 10 10 9 9 10 11 9 8 7 7 8 9 9 10 11 12 12
18 16 14 14 14 14 11 10 9 9 9 10 9 10 10 10 10 9 8 7 8 8 8 7 7 7 9 10 11 13 13 13 14
19 18 17 15 15 16 14 14 12 12 11 12 11 10 10 10 9 8 7 6 6 6 6 6 6 8 10 12 13 14 15 16 16
21 20 17 18 17 17 16 14 14 14 14 13 12 11 10 9 9 8 6 5 5 6 6 6 9 9 10 11 12 14 18 19 18
23 21 18 20 19 18 17 15 15 14 15 14 12 11 10 10 9 7 6 6 5 6 6 9 9 10 10 12 14 15 16 18 18
23 22 22 23 21 20 20 17 16 16 15 14 13 12 11 11 8 8 7 7 7 7 9 11 10 12 13 14 16 17 17 18 19
25 24 24 26 25 22 21 20 20 18 17 16 15 14 13 12 11 10 9 10 9 10 12 12 13 15 17 19 20 20 20 18 17
27 27 28 29 28 27 26 24 23 20 19 18 14 9 13 14 14 12 12 12 12 13 14 14 16 18 20 22 21 23 22 20 18
33 27 29 31 31 32 31 28 26 23 21 20 15 6 8 7 12 15 15 15 15 15 16 17 19 23 25 24 24 22 22 21 19
36 35 30 31 32 34 34 30 28 24 23 21 21 20 16 9 6 12 15 16 17 17 17 19 23 24 23 23 23 23 23 23 20
37 38 36 33 34 36 34 32 29 27 24 22 21 19 18 16 16 11 12 15 16 17 19 23 23 23 22 22 24 25 23 24 26

GFSFLT1_850_spd_060.txt.gz
Wind_Speed
5 5 8 14 13 18 15 15 10 7 3 2 2 5 5 6 7 8 10 11 11 8 7 8 10 7 6 10 3 5 4 4 3
5 6 7 11 14 17 15 12 10 6 4 3 6 5 6 7 6 8 9 11 7 4 3 4 3 3 4 6 6 6 1 2 3
6 7 8 10 12 14 12 9 7 5 5 5 7 6 5 5 4 6 5 6 3 6 5 4 4 3 2 2 1 2 4 2 1
8 8 9 10 12 11 10 8 7 7 6 7 7 6 4 3 2 3 3 2 6 7 6 3 1 3 4 7 6 5 5 5 4
9 10 10 10 11 10 10 9 9 9 7 6 6 5 4 1 1 0 1 5 8 6 4 3 5 6 7 6 6 6 6 7 6
10 10 10 10 10 10 10 10 9 9 7 6 6 5 4 2 3 2 4 7 7 6 7 6 7 7 7 8 8 8 9 9 9
10 10 10 9 10 9 10 10 10 9 7 6 6 5 4 3 4 5 5 7 6 8 7 7 7 7 8 7 8 9 9 9 8
13 12 12 11 10 11 11 11 10 8 6 6 5 5 5 5 5 6 7 6 7 12 7 6 7 7 6 6 7 7 7 7 7
15 14 12 11 11 11 11 10 10 8 7 7 6 7 6 6 7 7 7 7 10 11 9 7 6 6 6 6 6 7 8 9 9
15 16 15 13 12 12 11 11 10 9 7 7 7 8 7 8 8 8 8 8 10 10 7 6 5 5 6 7 8 9 10 11 11
17 16 16 15 14 14 13 11 10 10 8 7 8 9 9 9 9 8 8 8 8 8 6 4 4 5 7 9 10 12 11 12 13
20 18 18 14 14 15 15 14 13 12 10 9 9 10 10 11 10 8 8 8 7 6 6 5 4 5 8 9 11 13 12 14 15
23 22 20 17 17 17 17 16 15 14 13 11 11 12 11 11 10 9 8 7 6 6 7 6 6 8 7 9 9 12 15 17 17
25 24 20 19 20 19 20 18 17 15 14 14 14 14 12 12 10 9 9 8 8 8 8 7 9 9 8 9 11 13 15 17 18
23 24 23 23 23 23 22 21 19 17 16 16 15 14 14 13 12 11 11 10 10 10 10 10 10 10 11 12 14 16 16 17 18
22 24 25 27 26 25 23 23 22 21 19 17 17 16 16 15 14 13 13 12 12 13 13 12 12 13 14 16 17 19 18 19 19
27 27 28 28 27 27 28 26 25 24 21 20 18 13 16 18 18 17 15 15 15 15 16 15 15 17 18 20 21 20 21 20 19
31 32 29 28 28 29 30 31 28 27 24 22 18 8 10 11 16 18 18 17 17 18 18 18 18 20 22 24 22 21 21 20 19
35 34 32 32 30 31 32 32 32 30 28 24 25 25 18 9 8 16 19 19 19 19 19 20 21 22 25 23 23 23 22 22 23
38 35 35 34 35 34 33 33 34 33 30 29 28 25 24 23 20 12 16 17 18 19 20 22 23 25 24 24 23 24 25 24 26

GFSFLT1_850_spd_063.txt.gz
Wind_Speed
6 8 11 8 19 19 15 13 9 4 1 2 6 8 8 9 8 9 11 12 9 7 5 7 9 7 7 7 4 3 3 3 2
6 8 14 14 19 15 15 13 8 5 2 2 7 8 9 8 8 9 11 10 5 3 3 2 2 1 1 5 7 12 9 10 4
7 8 10 13 15 16 14 10 8 6 3 6 7 7 6 6 6 6 7 5 2 4 3 1 2 3 2 1 2 1 3 1 1
7 8 10 12 14 13 12 10 8 6 6 7 7 6 6 4 4 4 4 0 4 3 3 1 1 2 3 4 3 3 5 5 6
8 8 10 12 12 11 10 9 8 8 7 7 6 5 4 2 1 1 0 3 5 1 1 4 4 3 4 5 5 6 6 5 5
10 10 10 11 12 11 10 10 9 7 6 5 5 5 3 2 2 2 3 5 2 4 4 5 5 5 5 6 6 6 7 7 7
11 11 11 11 11 11 11 10 8 7 6 5 5 4 4 3 3 4 5 5 6 6 6 6 5 5 5 5 5 5 5 5 5
12 12 12 12 12 11 12 10 9 7 6 5 5 4 4 4 5 5 5 4 9 7 7 6 5 4 4 4 4 4 4 5 5
14 13 13 12 11 11 11 11 10 9 7 7 6 6 6 5 6 6 7 6 11 9 8 6 5 4 4 4 4 5 5 5 6
16 15 14 14 13 12 13 12 11 10 8 7 7 7 7 7 7 7 7 9 11 10 8 5 4 4 4 4 5 6 7 8 7
17 17 17 16 14 14 14 13 13 11 10 9 8 8 8 8 8 8 8 8 9 9 7 5 4 5 5 7 9 8 9 8 9
19 19 19 18 17 17 17 16 14 13 11 10 9 9 9 9 9 9 8 9 9 9 7 5 5 5 8 8 9 10 11 12 12
22 22 21 20 19 19 19 18 16 15 13 12 12 12 11 11 11 10 10 10 10 10 9 7 7 7 7 8 8 11 12 15 15
24 24 23 23 23 21 21 21 19 16 15 15 13 14 13 13 12 12 11 11 11 11 10 9 9 9 9 9 10 12 14 15 16
24 24 25 26 27 25 24 22 21 19 18 17 16 16 15 15 14 14 13 13 13 12 11 11 11 10 11 11 12 14 15 16 16
23 24 26 30 30 28 24 25 24 23 22 19 18 18 18 17 17 16 16 16 15 15 14 14 13 14 14 14 15 16 18 17 17
26 27 28 30 31 31 29 30 27 26 25 24 20 14 19 21 21 20 19 19 18 17 17 16 16 17 16 17 19 20 19 19 18
31 32 31 31 32 33 31 32 31 30 29 28 21 9 12 13 20 22 21 21 21 20 20 19 19 19 19 20 21 22 21 20 19
35 34 34 34 33 34 33 32 34 34 33 30 29 28 20 11 9 16 20 22 23 23 22 21 21 21 22 22 23 24 23 22 23
38 37 36 35 36 36 36 35 36 36 36 35 33 31 30 27 24 18 21 23 24 25 24 23 22 22 23 23 24 24 23 24 25

GFSFLT1_850_spd_066.txt.gz
Wind_Speed
4 6 7 10 16 17 12 10 8 2 1 2 6 7 9 10 8 9 10 6 6 7 5 8 8 9 9 7 3 2 4 1 1
7 8 9 13 15 17 12 10 7 4 1 3 6 8 9 7 8 8 8 6 4 3 1 2 3 2 1 3 8 11 12 11 4
8 11 12 15 13 13 12 11 7 4 2 6 7 7 8 7 6 6 5 3 2 2 1 3 4 5 3 1 4 4 3 1 1
8 9 12 18 15 16 14 10 7 5 5 8 7 6 6 5 4 6 1 2 4 3 1 2 3 2 3 3 4 5 5 7 8
8 10 12 14 15 14 12 10 8 6 6 8 7 5 4 3 3 3 2 3 2 1 3 6 5 4 5 5 6 6 5 5 5
9 11 12 13 14 13 12 10 8 7 7 6 6 5 4 3 3 2 2 3 4 4 5 7 6 5 6 7 7 7 7 7 6
11 11 12 12 13 12 11 10 9 8 6 6 6 5 4 4 3 3 4 3 7 6 6 6 6 5 5 5 5 5 5 5 5
12 13 13 12 12 11 11 11 9 9 7 7 6 6 6 4 5 6 6 6 9 8 7 6 5 5 4 4 4 4 4 5 5
12 12 13 13 13 12 11 9 10 10 8 7 7 6 6 6 7 6 7 8 11 8 8 6 5 4 4 3 3 4 4 5 6
14 13 14 14 13 12 12 11 12 11 10 10 9 9 9 9 8 6 8 11 11 10 9 6 5 4 3 4 4 5 5 5 6
16 15 15 15 16 14 13 13 13 13 12 12 11 10 10 10 10 6 7 10 12 12 9 7 6 6 5 6 6 5 4 5 7
18 16 16 17 17 17 16 16 16 16 15 14 13 12 12 12 11 10 8 10 12 13 11 9 8 8 7 8 8 7 8 8 10
22 21 18 16 18 19 18 19 19 18 16 16 15 14 14 13 13 12 12 12 11 12 12 11 10 9 9 8 8 9 8 10 12
24 23 21 20 20 20 21 21 21 21 19 19 18 16 15 16 16 14 14 15 14 13 13 13 12 11 11 10 10 10 11 12 14
25 25 24 23 23 25 24 25 24 23 22 21 20 19 18 18 18 17 17 17 17 16 16 15 15 14 13 12 12 13 13 14 15
28 28 27 27 29 28 28 27 27 27 27 23 23 22 21 21 21 21 20 20 19 19 19 18 17 17 16 15 15 16 15 16 15
32 30 30 29 30 30 30 32 32 31 31 27 15 10 18 25 25 24 24 23 23 22 22 21 20 19 19 19 18 18 17 17 17
35 33 32 32 31 33 35 36 36 36 34 33 20 10 12 13 22 27 27 26 26 24 24 24 23 22 22 21 21 20 20 19 19
39 37 36 36 34 35 36 37 38 38 39 36 37 32 15 9 7 18 24 26 27 27 26 26 26 24 24 23 22 22 22 22 22
35 39 38 39 39 38 39 40 40 42 42 41 39 39 37 33 25 13 20 25 27 28 28 27 27 26 25 24 25 24 25 24 24

GFSFLT1_850_spd_069.txt.gz
Wind_Speed
2 4 4 7 13 12 10 6 1 4 6 5 6 9 12 15 7 8 7 5 8 9 9 9 9 10 11 15 7 8 4 3 5
5 4 7 10 14 11 9 6 3 1 3 3 6 9 12 12 5 5 4 5 3 4 2 2 3 2 1 4 9 8 15 10 8
7 7 8 11 14 12 8 7 4 2 1 4 6 8 13 7 6 1 0 3 5 3 4 3 3 3 1 2 2 3 3 1 1
9 9 12 12 11 12 10 8 6 4 3 5 6 7 10 8 6 1 3 2 2 0 2 5 5 3 3 3 3 4 4 5 5
9 9 12 15 11 13 11 9 7 4 5 6 5 5 7 5 4 2 4 2 1 3 5 6 5 4 4 4 4 4 4 5 6
8 10 10 11 13 11 11 8 6 5 5 6 5 4 4 3 3 5 4 2 4 5 7 7 7 5 5 5 5 4 4 4 4
7 9 11 11 12 12 11 9 7 6 3 5 5 5 4 3 3 9 5 5 5 6 7 7 6 5 5 5 5 5 4 3 3
12 11 12 12 12 11 11 10 9 7 7 6 3 5 5 4 4 10 6 6 8 7 7 7 5 5 4 4 4 4 4 5 5
11 10 11 10 11 8 8 7 7 9 9 7 7 7 6 5 5 11 8 8 9 9 9 7 6 4 3 2 2 3 3 4 4
11 12 12 12 11 12 11 11 11 10 9 9 9 9 7 8 8 8 11 11 10 10 10 8 6 5 4 3 2 3 3 3 4
15 13 13 13 13 13 13 13 12 11 11 11 10 10 11 10 10 6 13 12 11 11 11 9 7 6 6 4 5 3 3 3 4
16 16 16 17 14 14 14 14 13 13 12 12 12 12 11 12 12 11 10 11 13 13 13 10 9 8 7 7 6 5 4 5 5
19 18 17 16 17 16 16 15 16 15 15 14 15 15 15 13 12 13 13 13 12 12 14 12 10 10 10 10 8 7 7 8 9
21 20 19 19 21 20 18 18 18 17 17 16 17 17 17 16 15 15 15 16 15 15 13 13 12 12 12 11 11 10 9 10 11
23 22 21 21 22 24 21 21 21 19 19 17 18 19 20 19 19 19 18 18 17 18 20 15 15 15 15 14 13 13 12 12 13
25 26 23 24 25 28 28 24 24 24 20 18 21 21 23 23 22 21 21 21 20 19 21 19 18 17 17 17 17 16 15 15 16
30 28 29 28 29 27 28 29 28 27 28 28 20 12 21 27 27 25 24 23 23 21 22 22 20 20 19 21 18 19 18 17 17
35 34 34 32 31 32 32 31 34 34 33 33 23 10 13 13 19 27 27 24 25 24 24 24 23 23 22 24 21 21 19 20 19
37 38 38 35 34 35 36 35 36 36 37 34 35 30 16 10 9 17 24 24 25 26 24 25 25 25 24 25 25 23 21 21 21
34 36 36 38 37 38 39 38 40 42 39 40 38 39 38 29 19 12 17 21 24 27 27 26 26 27 27 27 26 23 23 23 23

GFSFLT1_850_spd_072.txt.gz
Wind_Speed
2 4 7 11 14 9 7 4 4 7 9 10 13 17 19 15 10 9 4 8 11 9 8 7 8 8 14 13 15 14 8 8 8
6 6 9 13 14 10 9 4 2 5 7 9 11 16 17 11 5 6 4 4 3 2 2 4 4 2 1 5 7 11 13 11 8
8 8 11 13 15 10 8 5 2 3 5 7 11 16 16 10 5 3 2 3 3 3 4 5 5 3 1 1 1 1 1 1 1
7 9 11 11 13 10 8 5 2 1 3 7 9 11 13 10 3 2 2 3 1 2 6 7 6 4 3 2 2 2 2 2 3
8 7 9 10 10 10 8 5 3 1 4 6 7 9 10 8 3 1 4 2 1 4 6 6 5 5 4 3 3 3 3 3 4
8 8 9 12 8 8 8 6 4 3 4 6 6 9 9 6 5 5 6 4 3 3 6 7 5 4 4 3 3 2 2 2 2
9 8 7 8 9 8 8 6 5 5 5 4 5 7 8 7 10 8 7 6 4 4 6 7 6 4 3 3 3 3 3 3 3
7 8 9 9 7 9 8 7 7 6 4 2 5 7 4 9 11 9 6 8 5 5 5 6 5 4 2 2 2 2 3 3 3
11 9 10 10 9 9 9 9 9 10 10 10 4 6 12 10 12 11 8 9 8 7 6 6 5 4 3 2 1 2 3 3 3
10 9 9 10 9 9 7 8 5 8 12 12 10 11 14 13 15 13 11 10 10 9 8 7 6 4 3 1 1 2 2 2 2
11 12 13 10 11 10 13 11 13 16 12 13 15 17 17 15 13 14 13 12 11 11 10 8 7 5 4 3 2 2 1 2 2
16 16 16 16 15 16 17 15 16 18 15 17 17 18 16 15 14 16 16 15 12 12 12 10 8 7 7 6 4 4 3 3 3
20 19 21 20 19 18 18 19 20 20 20 20 20 19 18 17 15 15 18 16 15 12 13 12 11 10 10 9 7 6 6 5 5
21 21 21 21 19 19 20 22 23 24 23 23 21 22 22 19 18 17 17 20 19 15 14 13 13 13 12 12 12 10 8 8 8
21 22 22 22 24 24 24 24 24 26 23 23 21 24 23 22 21 21 19 21 23 21 19 16 15 15 16 15 15 14 11 11 10
23 25 25 25 26 28 28 26 26 27 25 22 23 24 26 26 25 24 23 24 24 24 24 22 20 19 20 19 18 18 15 14 13
27 27 28 29 29 30 29 30 29 29 29 27 24 23 28 30 29 28 27 26 26 25 26 26 24 22 21 21 22 20 19 17 17
31 31 31 32 30 32 34 32 32 33 33 34 28 12 16 16 22 26 30 29 30 28 26 28 28 26 26 24 23 21 21 19 19
35 34 36 36 35 34 33 34 35 34 36 35 38 33 16 13 11 19 23 28 32 32 31 28 29 28 28 27 25 23 21 19 19
29 27 32 35 35 35 34 35 36 37 37 40 39 38 37 26 22 20 23 26 29 31 32 30 30 29 30 29 26 25 23 22 21

GFSFLT1_850_spd_075.txt.gz
Wind_Speed
5 8 11 14 12 8 6 5 9 11 14 16 18 17 14 12 8 8 8 12 10 8 6 5 6 9 10 13 16 12 11 14 14
7 10 14 17 14 10 7 4 7 10 12 16 16 14 12 10 7 6 4 2 1 1 2 3 2 0 3 3 7 10 9 7 11
9 12 16 17 13 11 9 6 6 8 11 14 15 13 12 8 6 2 2 1 2 3 4 5 5 3 2 1 1 1 2 3 2
10 12 14 16 13 10 7 5 5 6 9 12 13 11 8 6 5 1 2 1 3 4 5 5 4 3 1 1 1 1 1 2 2
8 11 11 13 11 9 7 6 4 4 7 9 10 9 7 4 2 0 2 3 3 4 4 5 4 3 1 1 1 2 2 3 3
8 7 8 10 10 10 8 6 4 5 7 8 9 9 8 5 4 5 4 4 4 3 4 4 4 2 1 1 0 1 1 0 0
10 9 9 10 10 10 9 7 6 7 8 8 10 10 9 8 8 8 7 6 6 3 4 4 3 2 1 1 2 2 2 2 2
9 10 10 10 7 10 10 9 9 9 9 10 9 9 10 9 10 10 9 8 8 5 5 4 3 3 2 1 2 2 2 2 1
9 10 10 10 9 10 10 9 10 11 12 10 9 11 10 11 14 11 10 10 9 7 6 5 4 4 3 2 2 2 2 2 2
10 10 11 10 11 10 10 10 11 12 11 10 10 12 13 17 17 15 14 11 11 10 8 7 6 5 4 4 4 2 2 2 2
13 12 11 9 9 9 9 9 11 11 11 13 15 15 18 18 18 18 17 14 12 12 11 10 8 7 6 6 5 4 4 3 2
15 14 12 11 11 9 11 10 12 12 14 16 17 20 21 21 20 20 18 16 14 14 14 12 10 10 9 8 7 6 6 5 4
19 17 16 15 14 14 16 17 17 18 21 20 20 21 22 22 22 20 21 19 17 15 15 15 13 13 12 11 10 9 8 8 7
22 21 20 20 20 20 18 20 21 23 23 23 22 24 25 25 23 22 21 22 21 18 17 17 16 15 15 14 13 11 10 10 10
19 22 23 23 24 24 23 22 22 24 25 25 25 25 27 27 27 26 25 24 24 22 21 20 19 17 18 18 17 16 13 13 12
20 20 22 24 25 25 25 25 24 25 25 25 27 28 28 30 31 30 29 29 27 27 26 23 22 21 20 21 21 20 18 15 14
25 25 24 24 26 27 27 29 30 29 27 28 28 26 31 36 36 34 33 33 31 31 30 28 27 25 23 24 25 24 22 19 17
29 29 30 29 29 30 30 30 33 33 34 33 28 14 21 23 27 33 36 36 35 35 33 31 29 29 27 26 27 25 24 24 21
34 33 33 31 33 34 33 34 34 35 36 37 39 39 29 18 13 21 25 31 34 35 34 32 30 30 30 28 26 24 23 23 21
21 21 22 25 34 33 33 34 35 32 36 38 39 42 43 42 33 28 26 23 27 32 32 32 33 32 31 29 26 26 23 23 21

GFSFLT1_850_spd_078.txt.gz
Wind_Speed
7 11 16 13 9 8 6 9 12 14 16 15 13 15 13 10 10 11 12 11 7 6 3 3 4 7 11 14 12 12 15 14 13
9 12 16 14 11 8 5 7 11 13 14 13 10 12 11 10 7 7 5 1 2 2 2 2 1 2 4 6 8 8 8 12 11
10 13 17 14 12 9 7 9 10 12 12 11 10 9 8 7 4 2 2 1 2 3 2 2 2 1 2 3 5 5 6 4 5
12 14 16 14 11 10 8 8 9 10 11 10 9 7 5 4 3 1 1 1 3 3 4 3 3 2 2 3 4 4 5 5 4
11 14 14 13 11 10 7 7 7 8 10 10 7 6 5 4 2 1 1 3 4 3 4 4 3 2 2 3 4 4 4 5 4
10 12 13 13 12 9 7 6 6 7 10 10 9 7 6 4 3 3 4 6 6 5 5 5 4 3 3 3 2 2 2 2 2
10 8 10 11 11 11 10 9 7 8 10 10 10 9 8 6 5 6 8 8 8 6 6 6 5 4 3 2 2 1 2 2 1
10 9 9 10 9 11 12 10 8 9 10 11 11 11 11 9 8 7 10 9 10 8 8 7 6 5 4 3 3 2 3 3 2
10 9 9 9 8 9 11 10 10 10 11 12 13 13 13 12 11 10 11 11 12 11 10 8 7 7 6 5 5 4 4 3 3
10 8 9 9 11 10 11 11 12 13 13 13 12 14 15 14 14 13 15 14 14 14 13 10 9 8 8 7 7 6 5 5 4
11 8 8 9 9 9 10 11 11 12 14 14 14 14 16 16 17 17 18 18 16 16 15 14 12 10 10 9 8 8 7 6 5
10 9 10 11 9 9 10 12 13 14 15 16 14 16 17 19 20 22 22 21 19 17 17 17 15 13 12 11 11 10 9 9 8
13 13 14 12 12 11 12 12 15 16 17 17 16 19 21 22 24 25 25 24 22 20 18 18 18 17 15 14 13 13 12 11 10
16 17 16 15 15 16 15 15 17 20 20 20 20 22 24 25 26 27 26 26 25 22 21 20 20 20 18 17 16 15 14 14 13
19 19 20 19 20 21 21 21 21 22 23 23 24 25 26 27 29 30 29 28 28 26 23 23 22 22 21 20 18 18 17 15 14
21 20 21 23 24 24 24 25 25 25 23 24 27 29 30 31 33 33 33 33 31 30 28 26 26 25 23 22 22 20 20 18 16
23 23 23 23 24 25 26 28 29 29 27 28 29 29 31 35 36 36 36 36 34 34 32 31 31 28 26 25 24 24 19 18 18
27 27 28 28 27 27 27 28 30 32 31 32 30 13 19 23 24 24 29 35 36 36 35 35 34 32 29 26 26 26 27 24 19
31 31 30 30 31 33 33 33 34 33 36 36 35 38 38 21 20 24 18 19 30 33 36 37 35 32 29 26 27 28 26 24 20
25 25 26 27 29 32 35 36 36 35 36 37 34 35 38 41 41 35 33 29 24 27 33 37 38 40 34 25 29 28 30 31 30

GFSFLT1_850_spd_081.txt.gz
Wind_Speed
11 15 12 9 8 9 10 10 11 10 10 10 11 11 11 10 12 11 11 6 5 3 3 2 4 9 11 10 10 13 12 11 11
11 15 12 10 8 7 8 8 8 8 8 9 9 9 9 8 7 5 2 2 5 5 4 4 2 3 6 7 6 8 9 10 8
11 14 13 10 8 6 8 7 7 8 7 6 7 7 6 5 3 0 1 4 5 5 5 5 4 2 2 4 5 5 5 4 4
12 14 13 10 9 7 8 7 7 7 7 5 5 4 3 3 3 3 3 4 6 6 6 7 6 4 3 4 4 5 6 7 7
13 14 14 11 9 8 7 7 7 7 8 7 5 2 1 1 1 3 5 7 7 7 8 8 7 6 5 4 5 5 6 6 7
14 15 14 13 11 10 8 8 7 9 10 9 7 4 3 2 2 3 7 8 9 9 9 9 8 7 6 5 4 4 3 3 4
8 9 11 12 11 10 9 8 8 9 11 11 9 7 6 5 5 6 8 10 11 10 10 10 9 8 7 5 4 3 3 2 2
10 9 8 9 9 8 8 8 7 8 11 11 12 11 10 8 8 8 9 11 12 11 11 11 10 9 7 6 5 4 3 3 3
11 10 9 8 8 8 9 10 9 8 10 11 12 13 13 12 10 11 10 11 14 14 13 12 12 11 9 8 6 5 5 4 4
10 9 8 8 9 9 9 10 11 10 11 11 12 14 15 15 14 13 13 13 15 17 16 14 13 12 11 9 8 7 7 6 6
11 9 8 8 8 9 10 10 11 11 12 13 14 14 16 17 17 15 15 16 16 18 18 17 15 14 13 11 10 10 9 9 8
9 11 9 7 8 8 9 10 12 12 13 14 15 15 17 18 19 18 19 19 20 21 20 20 18 16 15 14 12 12 11 11 10
10 11 11 7 9 11 11 10 11 13 14 15 16 18 18 18 20 21 22 23 23 23 21 20 20 19 18 16 15 14 14 13 12
14 13 12 11 12 14 14 13 14 14 15 16 17 18 20 21 22 24 25 25 26 25 22 22 21 21 20 18 14 15 16 15 13
17 16 15 15 17 18 18 18 17 18 18 19 21 22 23 24 26 27 27 28 29 27 26 24 23 21 21 21 17 15 17 17 15
19 18 18 19 21 21 21 21 22 22 23 23 26 26 26 28 29 30 31 32 31 30 29 28 26 24 23 22 21 17 17 19 16
22 21 21 22 23 23 23 25 25 25 26 28 29 28 29 29 28 27 27 29 33 33 31 30 29 27 25 24 21 20 17 17 18
25 24 25 26 26 26 25 26 27 29 29 30 29 15 17 20 20 22 22 22 25 29 31 32 31 30 30 29 28 25 20 17 13
27 27 27 27 27 28 29 30 31 31 34 33 33 33 34 30 24 25 24 31 29 29 27 28 33 35 36 35 35 33 33 35 35
28 28 27 26 27 28 28 28 31 32 34 36 35 32 34 34 37 32 27 28 29 33 31 30 31 33 35 38 39 36 33 33 35

GFSFLT1_850_spd_084.txt.gz
Wind_Speed
13 9 10 9 9 11 11 11 12 12 11 12 11 11 11 12 11 12 8 6 5 5 5 3 8 10 10 10 12 11 11 10 8
13 12 10 9 8 9 10 10 10 10 11 11 10 9 9 8 7 5 3 5 7 8 7 7 5 5 3 4 6 8 8 7 5
13 12 10 10 8 8 9 8 7 7 8 8 8 8 7 6 5 4 4 7 8 8 9 9 7 5 2 2 3 4 4 4 4
14 14 11 10 9 8 7 6 5 5 4 5 5 5 5 4 6 6 7 9 10 10 11 11 9 7 5 4 4 5 6 7 7
15 15 12 10 9 8 7 5 5 5 4 3 2 2 2 3 4 5 8 10 11 11 11 12 10 9 7 6 5 5 6 6 7
11 16 13 12 10 9 7 6 6 7 7 5 3 1 0 2 3 5 9 10 12 11 11 12 11 9 8 7 5 5 4 4 5
10 11 12 11 9 7 6 6 4 4 6 7 6 5 3 3 5 5 7 10 11 13 13 13 12 11 9 8 7 5 4 3 4
10 10 10 10 9 8 8 7 6 6 8 9 8 9 7 6 7 7 8 10 11 13 14 14 14 12 11 9 7 6 5 4 3
9 9 7 7 6 7 7 8 8 7 8 10 11 10 10 10 9 9 10 11 12 13 15 15 14 14 13 11 8 7 6 6 5
9 9 8 8 8 8 7 8 8 8 9 10 11 11 12 12 12 11 11 12 13 15 16 17 16 15 14 13 11 8 7 6 6
10 9 8 8 8 8 9 9 9 9 10 11 12 12 12 13 14 14 13 13 14 15 17 18 18 16 15 15 13 10 9 8 7
9 10 9 6 7 7 8 8 9 9 10 9 12 13 13 14 15 15 15 15 15 16 17 19 19 18 16 15 15 12 11 11 9
10 10 9 7 7 8 8 8 9 9 10 10 10 12 15 16 16 16 16 17 17 18 18 18 19 19 18 16 13 15 13 13 12
12 11 9 9 10 10 10 11 12 12 11 12 13 14 16 16 18 18 18 18 19 20 20 19 20 20 19 18 14 14 17 15 13
14 13 12 12 14 14 14 14 15 17 16 16 18 18 18 20 20 21 21 22 23 23 23 22 21 21 21 20 17 12 16 18 19
16 15 15 15 17 16 16 17 18 20 20 21 23 23 22 23 23 24 24 23 23 24 24 24 23 22 21 22 20 17 16 18 21
18 18 17 17 18 19 19 20 21 22 22 23 25 26 26 24 22 19 15 16 18 20 21 23 23 24 24 24 23 22 21 23 27
22 21 20 22 22 23 23 23 24 25 25 25 25 13 15 20 24 23 26 25 20 15 16 17 19 22 24 26 27 29 31 30 26
26 24 23 23 23 24 24 25 26 27 28 28 29 30 32 28 21 23 24 24 24 26 20 20 23 26 25 26 28 29 31 32 25
27 28 28 28 26 25 25 26 26 25 26 26 25 29 30 27 26 26 24 23 21 21 25 24 25 22 24 25 27 26 26 28 31

GFSFLT1_850_spd_087.txt.gz
Wind_Speed
11 11 11 12 14 15 15 15 15 15 15 15 14 14 13 13 13 11 8 8 9 8 7 6 9 10 10 12 11 10 10 8 7
12 11 10 10 12 14 14 14 14 15 14 13 12 12 12 10 8 7 8 9 10 9 9 7 3 2 3 5 7 8 7 5 3
14 11 10 9 10 11 12 12 12 12 12 12 11 10 10 9 8 8 9 10 10 11 11 10 8 6 4 2 1 3 4 4 6
15 12 11 9 8 9 9 9 9 9 9 9 8 8 8 9 9 10 10 11 12 12 12 12 11 9 7 5 4 4 4 6 7
17 14 13 9 8 7 7 6 6 6 6 6 6 5 6 6 7 8 10 11 12 12 12 13 12 10 9 7 6 5 5 6 6
13 15 13 11 7 5 4 3 2 1 0 1 2 2 3 4 4 5 8 9 11 12 12 13 12 11 10 8 7 6 5 6 5
12 13 11 11 9 8 5 4 2 1 2 3 3 1 1 2 4 4 6 8 10 11 12 13 12 11 11 9 8 6 5 5 5
11 13 12 10 10 7 6 5 4 4 4 5 6 5 4 4 4 5 6 7 9 10 12 13 14 12 11 11 9 7 5 5 4
9 8 6 7 7 7 7 7 7 6 7 7 7 7 7 6 6 6 8 8 9 11 12 13 13 13 12 12 10 8 7 6 5
9 9 8 7 7 7 6 6 8 8 8 9 9 8 8 8 8 8 9 9 9 11 12 13 13 14 13 12 11 10 8 7 6
9 10 9 7 7 7 8 8 7 8 8 9 9 9 9 9 10 10 10 10 10 11 12 14 14 14 14 14 13 10 10 9 8
8 10 9 7 7 8 8 7 7 7 7 6 8 8 10 11 10 11 11 11 11 11 11 13 15 14 14 14 15 13 11 10 10
9 9 9 9 8 8 8 7 7 6 6 6 7 8 10 11 12 13 13 12 12 12 12 12 14 15 15 14 10 14 16 13 12
10 9 8 10 11 9 9 9 9 9 9 10 10 10 11 13 13 14 14 15 15 15 14 14 14 14 15 14 12 14 17 19 17
12 11 11 12 13 13 12 11 11 12 12 14 15 15 15 15 16 16 17 17 17 17 16 17 17 16 16 16 15 13 16 20 20
15 13 13 14 16 14 14 15 15 16 15 17 19 19 18 18 18 18 16 14 11 13 14 15 17 17 17 18 17 16 15 18 21
19 17 17 17 18 17 17 17 17 17 17 18 20 21 22 23 17 17 20 17 19 19 16 14 14 14 16 18 19 19 19 21 22
21 21 21 20 21 22 19 20 20 20 20 21 19 12 11 16 18 20 22 20 20 17 14 19 15 13 16 19 21 21 22 24 26
23 23 23 23 22 22 21 19 20 22 24 23 24 27 27 21 17 18 17 23 19 18 16 15 15 19 19 20 17 20 21 25 27
21 22 24 24 24 24 22 23 23 24 24 23 23 24 25 21 24 21 16 16 17 17 20 19 18 19 19 17 15 17 18 19 18

GFSFLT1_850_spd_090.txt.gz
Wind_Speed
13 14 15 16 16 17 16 15 15 16 15 15 15 15 14 15 11 11 10 11 12 10 7 6 7 9 10 10 10 9 8 6 4
11 12 14 15 16 16 16 15 15 14 13 13 13 12 11 10 9 10 10 11 12 11 9 6 2 2 2 3 5 6 5 2 2
10 10 12 13 14 14 15 14 13 13 13 12 12 11 10 9 9 10 10 11 11 11 11 10 7 4 2 2 2 3 5 7 10
11 10 10 11 12 12 12 12 11 10 10 10 10 9 9 9 9 9 8 10 11 12 12 11 10 9 7 5 3 2 4 6 7
15 11 9 8 8 8 7 7 6 6 6 6 6 7 7 6 7 7 8 10 11 11 11 12 11 10 9 8 7 5 5 5 5
13 10 9 8 6 5 5 5 5 4 3 3 4 4 4 3 3 3 6 8 10 11 12 12 12 11 10 9 8 7 6 6 6
14 12 10 8 7 5 3 3 2 2 2 2 1 1 1 1 3 1 5 6 7 9 10 11 11 10 10 9 8 7 6 6 6
13 14 12 10 9 5 5 4 3 3 2 3 3 3 2 2 4 4 5 6 7 8 9 11 11 11 10 9 8 7 6 5 5
11 11 10 8 9 9 7 5 6 5 4 4 5 5 5 4 5 5 6 7 7 8 9 10 10 10 10 9 9 7 6 5 5
11 11 10 9 9 8 8 8 7 7 7 6 6 6 6 5 6 6 7 8 7 8 9 10 10 10 10 10 9 8 7 6 6
11 12 11 11 10 10 9 9 8 8 8 8 7 7 7 7 7 7 8 8 8 8 9 10 11 11 11 11 10 10 9 8 8
11 12 12 11 10 10 10 9 9 8 7 7 6 7 7 8 8 9 9 10 9 8 9 9 11 12 11 11 13 12 10 10 10
13 11 12 12 11 10 9 9 8 7 6 6 6 7 9 9 10 11 10 10 11 11 10 10 11 12 13 11 11 15 14 14 13
13 11 11 13 13 12 10 10 9 8 8 8 8 10 11 11 12 11 12 12 13 13 14 12 13 14 14 14 11 14 18 16 15
13 12 12 13 13 13 13 11 11 11 11 12 13 14 14 15 14 12 12 12 12 13 11 13 14 14 15 16 14 13 16 20 20
15 14 14 15 16 15 15 15 15 15 14 14 15 15 15 16 16 14 12 11 15 13 15 15 15 15 14 16 16 15 15 17 25
17 18 17 18 18 18 18 18 18 18 18 14 11 10 10 12 12 13 13 14 16 15 18 16 14 14 16 15 16 18 17 19 19
21 22 21 21 21 21 21 22 21 20 21 19 15 9 9 12 13 16 18 18 16 16 19 15 17 17 16 15 17 19 19 19 20
21 21 21 22 23 23 23 23 21 21 22 23 23 22 22 19 14 14 16 19 18 20 16 15 16 15 16 16 17 18 18 17 19
19 20 21 22 22 22 23 23 22 23 23 24 23 22 23 23 22 20 17 16 15 14 16 17 18 15 14 14 14 17 17 16 15

GFSFLT1_850_spd_093.txt.gz
Wind_Speed
15 15 17 17 17 17 17 17 17 16 16 16 17 18 18 14 14 11 11 13 12 9 7 7 7 8 9 10 10 9 6 5 7
13 14 16 16 16 16 16 16 15 14 15 14 14 14 17 10 11 10 11 13 12 11 9 7 5 4 3 1 1 3 3 7 9
11 13 14 15 15 15 15 15 14 14 13 13 12 12 16 9 11 10 12 12 12 12 11 10 8 7 5 5 4 5 7 9 11
9 10 12 12 12 12 12 12 12 11 11 11 10 11 13 9 10 7 10 11 12 12 12 12 11 10 9 7 6 6 6 7 8
11 10 10 9 10 10 10 10 9 9 8 8 8 9 12 6 8 4 9 10 11 12 12 12 12 12 11 10 8 7 7 7 7
9 10 9 8 7 7 7 7 6 5 5 5 5 7 6 4 4 3 6 8 9 11 12 12 12 11 11 10 9 8 8 8 8
9 8 8 7 7 6 5 5 4 3 2 1 2 6 1 1 2 4 5 6 7 8 10 10 11 10 9 9 8 8 8 8 8
16 11 10 8 6 4 3 2 2 2 3 4 2 3 3 1 2 5 5 6 6 6 7 8 9 8 8 8 8 7 7 7 8
10 9 8 9 6 5 4 0 4 3 4 4 3 4 4 2 3 8 6 7 7 6 6 7 8 8 8 9 8 8 8 8 8
11 11 9 7 6 4 4 6 6 5 5 5 4 5 4 5 4 4 7 7 7 7 8 7 8 9 8 8 8 8 8 8 7
11 11 11 10 10 8 8 6 6 7 6 6 6 5 5 5 5 4 8 8 8 8 8 8 9 9 10 10 8 8 8 8 8
11 10 11 10 8 8 8 9 10 7 8 7 6 7 6 7 6 6 5 9 9 9 9 9 9 11 11 12 14 11 10 10 10
12 11 11 10 10 10 9 8 7 8 7 6 6 7 7 6 6 8 9 9 9 13 11 10 11 11 12 11 12 14 11 10 10
12 11 9 11 12 11 10 9 9 7 8 8 8 8 9 9 9 10 9 10 11 11 13 13 13 13 13 12 11 12 17 17 14
13 11 10 11 12 12 12 10 11 10 8 9 11 11 12 13 13 10 9 9 11 10 9 11 12 12 13 14 13 12 13 18 19
13 12 11 13 13 12 12 12 14 14 12 13 14 13 13 14 13 12 9 9 13 12 12 12 13 12 13 12 13 13 13 16 17
15 15 15 15 15 16 16 16 16 16 14 12 8 9 8 12 11 9 12 11 12 15 15 14 14 13 10 15 16 15 15 16 18
20 19 18 19 19 19 19 20 20 19 17 18 13 6 7 8 11 14 13 15 18 17 17 17 16 15 15 13 12 15 17 18 19
22 22 24 23 23 24 24 23 22 22 23 23 21 21 19 12 12 14 14 17 18 21 19 16 14 14 14 15 16 15 16 17 17
18 21 24 28 24 24 24 25 24 24 22 22 22 21 19 20 21 23 20 20 18 15 15 16 16 15 14 16 15 15 13 15 16

GFSFLT1_850_spd_096.txt.gz
Wind_Speed
17 18 19 19 19 20 19 20 20 20 21 20 18 20 20 10 10 14 14 13 12 9 8 7 7 8 8 8 7 6 8 9 11
17 19 19 19 19 19 19 18 18 18 18 17 18 19 15 8 13 14 13 15 14 13 12 11 9 8 6 5 5 7 9 11 12
16 17 17 18 18 18 17 16 16 16 15 14 15 16 14 13 12 13 13 13 13 13 13 12 11 10 9 7 7 8 9 10 11
14 15 15 15 16 16 15 15 15 14 14 13 14 13 12 13 7 11 11 12 13 13 13 13 12 11 9 9 9 10 10 10 10
12 13 13 12 13 13 13 12 12 11 11 11 12 13 13 10 6 8 9 10 11 12 12 12 11 11 10 10 10 10 10 10 10
10 11 11 11 10 10 9 8 8 9 8 8 8 10 10 2 4 6 7 8 9 10 10 10 10 10 10 10 10 9 10 10 10
8 9 12 11 9 8 7 7 6 6 7 5 5 7 6 1 4 5 6 6 7 7 8 9 9 10 10 10 10 10 10 10 9
12 8 10 8 10 8 5 4 4 4 4 1 2 5 5 1 7 6 7 7 6 6 7 8 9 9 9 9 10 9 9 9 9
13 9 7 7 5 5 7 5 3 1 3 3 3 1 2 3 7 6 7 7 8 7 7 8 8 9 9 9 9 9 9 8 8
8 6 4 2 1 0 3 6 8 5 2 3 4 6 6 5 6 7 6 7 8 9 9 8 8 9 9 10 10 9 9 9 9
11 11 6 2 4 3 4 8 8 7 5 5 6 5 4 5 5 7 7 7 8 9 9 10 10 10 10 10 10 8 8 8 8
17 16 17 16 17 14 12 10 10 8 7 8 7 7 5 7 6 5 7 8 9 8 9 9 10 12 11 13 11 9 8 7 7
16 17 16 14 14 13 13 11 9 8 7 6 4 8 8 7 7 6 9 9 10 10 10 9 11 11 12 12 12 13 10 8 8
14 15 15 14 14 14 12 10 9 7 8 9 9 10 9 8 8 9 10 10 11 10 10 11 11 11 12 12 12 12 16 14 13
13 12 11 12 15 14 12 11 10 11 11 9 11 10 11 11 12 12 10 8 12 13 11 11 9 10 11 12 13 13 13 14 16
14 14 12 12 13 12 10 11 13 12 11 13 14 13 12 11 11 10 9 6 12 16 12 13 11 12 15 13 12 12 13 13 14
13 13 14 14 14 13 12 14 14 14 14 13 10 9 12 9 9 7 9 13 16 16 15 14 13 13 13 13 13 15 16 17 16
17 16 15 16 17 17 15 17 19 17 15 16 14 6 6 4 7 13 14 15 16 17 15 15 14 16 16 14 14 14 14 16 18
15 17 16 16 16 18 20 22 23 21 20 19 21 20 19 10 7 12 15 13 17 17 19 18 14 12 14 15 14 15 15 16 17
8 9 10 13 14 15 18 22 24 27 23 22 22 22 20 22 24 17 16 15 16 16 13 14 15 15 16 17 17 16 16 16 16

GFSFLT1_850_spd_099.txt.gz
Wind_Speed
20 21 21 22 22 22 23 24 24 24 22 20 18 13 16 15 15 15 15 15 14 12 11 10 9 7 6 6 6 8 11 12 12
22 22 22 21 22 22 22 22 22 21 18 18 16 13 13 15 15 15 15 16 15 14 13 12 10 9 8 8 9 10 11 12 12
21 21 21 20 21 20 20 20 19 17 16 16 14 12 14 15 15 14 14 14 14 13 13 12 11 10 10 9 10 10 11 12 13
19 20 20 20 19 19 18 18 17 16 15 14 13 11 10 12 14 12 12 13 13 12 12 12 11 11 10 10 11 11 12 12 12
18 18 18 17 17 16 16 15 15 14 13 12 11 10 8 10 9 10 10 10 11 11 11 11 11 11 11 11 12 11 11 11 12
16 16 17 15 14 13 12 12 12 12 11 10 9 8 4 7 6 8 9 8 8 9 10 10 11 11 11 11 11 11 10 10 10
13 14 15 14 13 11 10 9 9 9 10 9 8 6 3 5 6 6 8 8 7 8 9 10 10 10 11 11 11 10 10 9 9
14 12 13 13 12 10 9 8 7 6 7 7 5 4 1 5 5 6 7 7 7 7 8 9 9 10 10 11 10 10 9 9 9
13 9 9 9 10 9 9 8 6 2 1 3 4 5 5 5 5 5 5 7 8 7 7 8 9 9 10 10 10 9 9 8 8
11 9 6 5 6 8 8 6 5 2 5 4 4 4 5 6 6 5 4 5 7 8 7 8 8 8 8 9 9 8 8 7 7
12 10 7 6 6 5 5 4 4 5 5 5 4 3 5 6 6 5 5 5 6 7 8 9 9 9 8 7 7 7 6 6 7
10 8 9 9 8 7 7 8 10 10 9 8 7 6 4 5 4 5 5 5 6 6 7 8 10 11 10 10 8 6 5 4 4
17 17 14 13 13 13 15 14 12 12 12 10 9 8 6 6 7 7 6 7 7 7 8 7 8 9 9 10 11 12 9 8 5
20 20 21 19 18 17 16 15 13 12 11 10 9 9 8 8 8 8 8 10 10 8 9 9 9 9 9 9 11 12 13 11 10
17 19 20 18 17 16 15 14 13 12 11 10 11 11 10 11 10 10 10 10 9 10 12 12 11 11 10 11 11 11 11 12 12
13 14 17 16 15 13 13 14 14 13 12 13 13 13 13 12 10 10 10 9 9 12 15 15 14 12 12 12 11 11 11 12 14
17 12 15 15 14 13 12 12 13 13 14 14 12 12 11 11 10 10 10 11 13 15 16 16 15 13 15 14 12 13 15 16 16
18 16 12 15 17 15 12 11 14 16 15 16 14 7 7 4 7 12 14 14 14 15 17 18 16 17 16 14 13 14 14 15 16
20 21 18 19 18 16 16 14 16 20 20 18 21 23 20 9 6 12 16 16 17 17 17 17 17 15 13 14 15 14 15 16 16
11 9 16 19 17 12 13 15 16 18 16 15 20 27 25 21 20 15 17 19 19 17 18 16 13 14 15 15 16 15 14 15 14

GFSFLT1_850_spd_102.txt.gz
Wind_Speed
20 22 23 24 25 26 26 24 22 17 15 18 17 16 15 15 15 15 15 14 13 11 10 10 9 7 7 8 10 12 12 14 14
24 24 25 24 24 24 24 22 20 17 14 16 16 16 15 15 14 14 15 15 13 12 12 11 10 10 10 11 12 12 13 13 14
24 23 23 24 24 24 23 21 19 16 13 13 14 15 15 14 14 14 13 13 13 12 12 12 12 12 12 12 12 12 12 13 14
24 23 23 23 22 22 21 19 17 15 13 10 13 12 12 13 13 12 12 12 12 12 12 12 12 12 11 11 11 12 12 12 13
22 22 21 21 20 20 18 17 15 13 12 8 7 10 10 10 10 9 9 10 11 11 11 12 12 11 11 11 11 11 11 11 11
20 20 20 19 18 17 16 15 13 12 11 10 5 6 7 8 8 8 9 9 9 10 10 11 11 11 11 11 11 10 10 10 10
19 19 18 17 16 14 13 12 11 11 10 8 5 3 4 6 6 6 7 8 8 8 9 10 10 10 11 11 10 10 9 9 9
18 18 18 16 14 13 11 10 10 9 8 8 6 3 1 2 3 4 5 6 7 7 7 8 9 9 10 9 9 9 8 8 8
16 15 14 13 12 12 11 10 9 8 8 7 6 5 3 2 2 3 3 4 5 6 6 7 7 8 8 9 8 7 7 6 7
16 12 11 10 10 10 10 10 8 6 7 6 5 5 5 6 4 3 2 3 4 5 5 6 6 7 6 7 7 7 6 6 6
13 12 11 10 10 10 10 7 7 5 5 6 6 6 8 8 6 4 3 3 3 5 6 7 7 7 6 6 6 6 4 4 4
13 12 12 9 9 9 10 9 7 7 8 8 8 8 7 8 6 5 5 4 4 4 5 7 7 9 10 8 7 6 5 4 3
14 14 12 10 10 10 10 9 9 10 11 10 10 10 9 8 8 8 7 6 6 6 6 6 7 9 9 9 10 11 10 8 5
15 14 13 13 13 13 13 13 14 14 14 13 12 11 10 9 10 10 10 9 9 8 7 6 8 10 9 10 10 11 13 12 9
18 17 17 17 17 17 18 17 17 15 13 12 12 12 12 12 12 12 12 11 11 11 10 10 10 11 11 10 10 11 12 12 11
15 17 20 22 22 19 17 16 15 15 13 13 14 14 14 15 14 14 12 13 13 13 13 13 13 13 12 12 12 11 11 11 11
15 14 15 19 18 15 14 14 14 14 14 14 13 11 11 12 14 15 14 14 16 16 17 16 15 15 13 15 13 11 11 14 14
21 18 13 15 15 10 13 14 14 14 14 15 13 6 3 6 9 13 17 16 17 19 17 16 16 15 17 15 13 12 14 15 15
23 23 21 20 20 21 22 17 19 19 17 15 17 17 19 11 8 12 15 17 18 16 17 17 17 17 15 13 14 14 14 15 15
23 24 24 21 22 21 20 21 20 17 16 14 14 12 19 17 16 22 19 19 18 18 21 19 20 15 15 15 15 15 14 14 15

GFSFLT1_850_spd_105.txt.gz
Wind_Speed
17 21 23 24 25 25 22 19 18 18 18 17 18 17 16 14 14 13 14 14 14 13 13 13 12 13 14 14 14 14 15 15 16
23 24 24 24 24 23 20 17 18 17 17 17 17 16 15 14 14 14 14 14 14 14 14 14 14 13 14 14 14 14 14 15 15
24 25 24 24 23 21 19 16 15 16 15 15 16 15 14 13 13 14 13 14 14 14 14 14 14 14 14 13 13 13 14 14 14
24 24 24 23 22 20 18 16 13 13 13 13 12 12 12 12 12 12 12 12 13 13 14 14 14 13 13 13 12 12 13 13 13
24 24 23 22 21 19 17 15 12 9 10 10 10 10 10 10 11 10 11 11 11 12 13 13 13 13 13 12 11 11 11 11 11
23 22 22 21 19 18 15 13 12 9 6 7 8 7 7 8 9 9 9 9 10 11 11 12 12 12 12 11 11 11 10 10 10
22 21 20 19 18 16 14 12 11 10 6 3 4 4 5 6 7 7 8 8 9 9 10 11 11 11 11 11 10 9 9 9 8
22 21 19 18 16 14 13 12 10 9 7 5 2 1 2 3 4 5 6 7 7 8 8 9 9 10 10 10 10 9 8 7 7
20 19 17 15 14 13 11 11 10 9 7 6 5 3 1 1 2 3 4 5 6 6 6 7 7 8 8 9 9 8 8 7 7
18 16 14 13 12 11 10 10 9 8 8 7 6 5 4 3 3 3 3 3 4 5 6 6 6 7 7 7 7 7 7 7 6
16 14 13 12 11 11 10 9 9 7 7 7 6 6 7 7 6 5 4 4 4 5 6 6 6 8 8 8 7 5 5 5 5
14 14 11 9 10 10 12 10 9 8 7 7 8 8 8 6 6 6 6 5 4 5 6 7 7 9 11 9 8 6 5 4 4
12 14 12 10 11 11 10 10 9 9 9 8 9 10 10 10 8 8 8 7 6 5 6 6 7 9 11 10 10 12 9 7 7
12 12 12 12 13 12 11 11 11 11 11 12 13 13 12 11 11 10 10 9 9 8 6 6 7 9 11 13 11 11 12 11 11
14 13 13 14 14 14 13 12 13 13 15 14 13 13 13 13 13 12 12 12 11 9 9 9 9 11 12 13 12 13 12 12 11
14 14 14 15 16 16 15 14 14 15 14 14 14 14 14 14 15 15 15 15 14 11 12 11 13 12 14 15 13 14 13 12 11
10 11 13 16 18 20 19 18 14 10 14 15 13 11 8 9 12 16 17 17 16 16 15 17 15 14 14 16 15 16 15 14 14
17 18 18 16 17 18 19 17 17 10 14 16 14 6 4 5 9 8 11 16 17 16 18 17 16 14 14 19 18 15 14 15 17
21 23 22 22 17 17 18 20 22 19 19 19 21 21 20 11 8 10 12 14 14 16 17 15 15 17 17 21 16 16 16 15 16
26 25 27 24 21 20 21 24 31 21 22 22 17 16 15 15 15 16 15 18 17 19 22 17 17 15 23 20 16 17 16 16 15

GFSFLT1_850_spd_108.txt.gz
Wind_Speed
15 19 22 24 24 21 21 20 20 19 19 19 18 18 17 16 15 16 16 17 17 16 15 16 15 16 16 16 16 16 16 16 16
20 23 24 25 23 21 20 20 19 18 18 18 17 16 16 15 15 16 16 17 16 16 16 16 16 16 16 16 16 15 15 16 16
24 25 25 24 22 20 20 19 18 17 17 16 16 15 14 14 15 15 15 16 16 16 15 15 15 15 15 15 15 15 15 15 15
26 26 25 23 21 19 18 17 16 15 14 13 14 13 13 12 14 14 14 15 15 15 15 15 15 15 14 14 14 14 13 13 13
26 26 25 23 21 18 15 15 14 13 12 11 11 11 11 11 12 13 13 14 14 14 14 15 14 14 13 13 13 12 12 12 12
26 25 23 22 20 17 13 11 11 10 10 9 8 9 9 10 11 11 12 12 12 12 13 13 13 13 13 12 11 11 11 10 10
25 23 22 20 19 16 14 11 9 8 6 6 6 6 7 8 9 10 10 10 10 10 11 11 12 12 12 12 12 11 10 9 9
25 24 22 21 18 16 13 11 8 6 4 3 4 3 4 5 6 7 8 8 8 8 9 9 10 10 11 11 11 10 9 9 8
25 23 21 19 16 14 12 10 8 7 5 3 1 0 1 2 3 4 4 5 6 6 7 7 8 9 9 9 9 9 9 8 8
23 21 18 16 14 12 11 10 9 7 6 6 5 3 2 1 1 1 2 2 3 5 5 6 6 7 8 7 7 7 7 7 7
20 18 16 14 12 11 10 10 9 8 7 7 7 6 5 5 4 3 3 3 2 3 4 4 5 7 8 7 6 5 5 5 5
17 16 14 12 12 12 11 11 9 8 7 6 6 7 7 5 5 5 5 5 4 4 5 4 5 6 10 10 9 7 5 4 4
17 16 13 12 11 10 10 10 8 7 7 7 7 7 8 8 8 7 7 6 6 5 5 5 5 7 8 8 10 11 10 7 8
16 15 15 13 11 10 9 9 9 8 9 9 10 10 11 10 10 9 9 9 9 7 7 6 6 7 9 11 11 11 10 8 10
15 14 15 14 13 12 12 11 10 10 10 11 11 11 10 10 11 11 12 11 10 10 7 7 7 9 8 10 13 12 13 11 10
14 13 13 14 14 12 11 11 11 10 11 13 12 10 12 11 13 14 14 14 14 13 11 12 12 12 11 12 14 12 13 13 12
12 11 12 13 13 13 13 12 12 11 11 13 12 8 7 9 10 11 14 15 15 16 17 16 14 14 10 14 17 18 15 14 13
10 11 11 12 13 14 12 13 12 10 12 14 11 7 5 4 9 13 10 8 9 10 14 15 17 16 14 13 19 17 16 15 14
16 18 18 16 20 17 14 14 11 12 25 21 15 19 20 20 14 17 11 10 11 11 12 15 15 13 13 16 21 15 16 15 16
23 24 24 22 19 16 10 13 18 17 11 16 23 25 23 22 17 12 14 13 12 13 16 14 18 18 16 16 16 16 14 14 15

GFSFLT1_850_spd_111.txt.gz
Wind_Speed
16 21 25 24 24 23 22 22 21 20 20 20 19 18 17 16 17 18 18 18 16 15 16 17 17 17 17 17 16 16 16 17 16
21 25 26 25 24 23 23 22 21 20 19 19 19 17 16 16 17 17 18 17 16 16 16 16 16 16 16 16 15 15 16 15 16
26 27 26 24 24 23 23 22 20 19 18 18 17 16 15 16 16 17 17 16 15 15 16 16 15 15 15 15 15 14 14 14 17
28 28 26 24 23 23 22 20 19 18 17 16 15 15 14 14 15 15 16 15 15 15 14 14 15 14 14 14 13 13 13 13 14
29 28 26 23 22 21 20 18 17 16 15 14 13 13 13 13 14 14 14 13 14 13 14 15 14 14 14 13 13 12 12 12 12
30 28 26 24 21 19 18 16 15 13 12 11 11 12 12 12 12 12 12 12 12 12 13 13 13 13 13 13 12 11 11 11 10
30 28 26 23 19 17 16 14 13 12 10 9 9 9 10 10 10 10 10 10 10 10 10 11 12 12 12 12 12 11 10 10 9
29 27 25 23 19 15 14 12 11 9 8 8 7 6 7 7 7 7 7 7 7 8 8 9 10 10 10 10 10 10 9 9 9
29 27 25 22 19 15 11 10 9 8 6 5 5 4 4 4 4 4 4 5 5 5 6 7 7 8 9 8 9 8 9 8 8
26 24 22 20 17 15 12 10 8 6 5 4 3 3 3 3 3 2 1 2 2 3 4 4 5 7 8 6 6 6 6 6 6
24 23 21 18 16 14 12 11 10 7 6 5 5 4 4 4 4 3 2 1 1 2 3 3 3 5 7 6 5 4 4 4 4
23 21 19 17 15 14 13 11 10 8 6 5 5 5 5 5 4 5 5 4 3 2 2 2 3 4 7 9 8 7 6 5 4
21 20 18 16 15 14 12 11 10 7 5 5 6 6 6 7 7 6 6 6 5 4 3 3 2 3 5 6 8 9 8 6 7
21 19 17 16 14 12 11 10 9 6 5 5 6 8 9 9 9 10 9 9 9 8 7 5 5 4 5 7 9 11 9 7 9
20 19 19 17 14 12 11 9 7 6 6 6 7 8 8 9 10 11 12 11 10 10 9 6 8 8 8 7 11 11 10 11 10
20 17 18 17 14 11 10 9 8 7 6 7 7 7 10 12 13 14 14 14 14 13 12 14 15 14 11 11 10 11 13 13 11
17 16 15 14 13 12 11 10 9 7 5 6 8 5 6 9 11 12 13 16 16 15 14 16 17 14 14 12 14 14 14 14 13
18 15 15 14 14 12 12 12 10 8 6 10 11 6 6 9 9 13 15 16 13 13 10 12 14 14 16 14 15 15 13 14 13
17 17 16 15 12 12 13 14 11 10 15 18 16 19 20 14 10 17 17 15 9 10 14 12 11 11 15 12 15 16 12 14 14
16 17 16 16 15 7 7 11 17 17 14 13 12 15 18 19 20 9 9 12 14 12 12 11 12 13 14 17 18 17 14 12 14

GFSFLT1_850_spd_114.txt.gz
Wind_Speed
21 23 25 24 22 21 21 21 20 19 19 18 18 17 17 17 17 16 16 15 14 15 15 15 15 15 15 14 15 15 15 16 16
23 24 25 24 23 22 22 21 20 20 19 19 18 17 16 16 16 15 15 15 15 15 15 15 15 15 14 14 14 14 14 14 16
27 25 26 25 24 23 22 20 19 19 18 18 17 16 16 16 16 15 15 14 14 14 15 14 14 14 13 13 13 13 13 13 14
28 27 26 25 25 23 22 20 19 18 17 16 15 15 14 15 15 13 13 13 13 13 14 14 14 13 13 13 12 12 12 12 13
29 27 26 24 24 23 21 20 18 16 15 14 14 13 13 13 13 12 12 13 12 12 13 13 13 13 12 12 12 11 11 11 11
28 25 25 24 23 21 19 18 16 14 13 13 12 12 11 10 10 10 11 11 11 11 11 12 11 11 11 11 11 10 10 10 11
22 26 24 25 22 19 18 16 15 13 11 11 10 9 9 8 9 8 9 9 9 9 9 9 10 10 10 10 10 10 9 9 9
25 27 23 23 21 19 16 15 13 11 9 9 7 7 6 6 6 6 6 7 6 6 6 7 8 9 8 9 8 8 8 7 7
24 27 24 22 18 17 16 13 12 11 9 7 6 5 5 5 4 3 4 4 4 4 4 5 6 7 7 6 6 6 6 6 6
25 24 21 20 19 18 15 13 11 9 8 7 5 4 4 4 3 3 2 2 2 2 2 2 3 5 6 4 4 4 5 5 5
24 24 22 21 19 17 14 12 10 9 6 5 4 4 4 5 5 5 5 4 3 2 1 1 2 3 4 4 4 4 4 4 4
27 26 24 22 20 16 14 12 10 7 6 4 4 4 5 5 6 7 7 6 5 4 3 4 3 2 4 5 6 5 5 4 3
27 25 24 21 18 16 14 12 10 7 5 5 5 5 6 6 8 8 8 8 8 7 6 5 4 3 2 3 6 8 6 5 4
25 23 22 20 18 16 13 12 10 8 6 6 6 7 8 9 10 10 11 12 11 10 10 9 7 7 6 6 6 10 11 8 7
25 22 21 19 17 14 13 12 10 8 6 6 7 8 8 9 10 12 13 13 12 12 12 11 11 12 11 9 9 8 11 12 11
25 21 20 17 14 13 12 11 9 8 6 6 6 7 9 11 12 13 15 14 14 15 14 15 17 18 15 14 13 12 12 13 12
23 20 18 17 16 13 11 10 9 9 7 7 7 4 5 8 8 13 14 17 17 17 17 16 18 20 18 19 16 14 13 15 13
22 19 17 16 16 15 15 13 12 10 12 13 6 4 4 5 10 11 10 15 16 18 18 16 14 16 17 19 19 17 13 14 13
22 20 19 19 19 17 16 14 12 14 16 13 13 10 12 5 8 8 12 17 15 12 11 14 16 14 12 12 18 13 17 12 14
24 23 22 21 19 16 11 14 13 18 20 16 15 10 11 13 11 15 7 9 12 9 10 10 11 12 14 13 13 19 22 15 15

GFSFLT1_850_spd_117.txt.gz
Wind_Speed
20 25 22 20 18 19 19 18 18 18 17 18 18 18 20 15 14 14 14 15 14 14 14 15 15 14 15 15 15 16 16 16 17
21 24 22 21 18 19 19 18 18 18 18 18 17 17 20 13 13 13 14 14 14 15 15 15 14 15 14 14 14 14 15 15 17
23 24 22 21 20 20 19 19 18 18 18 17 16 16 18 13 13 13 14 14 14 14 15 15 14 14 14 13 13 14 14 13 14
25 25 23 22 21 20 20 19 17 17 16 16 15 13 17 13 12 11 13 14 14 14 14 14 13 13 13 13 13 12 13 13 14
26 26 23 22 21 20 19 18 17 15 15 15 15 14 16 12 10 11 12 13 13 12 13 13 13 13 12 12 12 12 12 11 12
25 24 24 23 21 20 19 17 16 14 13 13 13 14 9 9 7 10 11 11 10 11 11 11 12 11 11 11 10 10 10 10 10
24 23 23 22 21 19 18 15 14 11 10 11 11 9 8 8 5 8 8 8 8 8 9 10 10 10 10 10 9 9 9 9 9
25 22 25 22 20 18 17 15 12 8 5 5 5 7 6 6 4 6 6 6 6 6 7 7 8 9 8 8 8 8 8 8 8
24 25 24 23 19 17 15 11 8 9 7 5 5 5 5 5 3 3 3 3 4 4 4 4 6 8 6 6 6 7 7 6 6
26 28 23 18 14 14 12 10 9 8 7 7 5 6 5 5 5 4 3 2 2 1 1 2 2 5 5 5 4 5 5 6 6
27 26 17 15 15 13 12 11 10 8 7 5 5 4 6 5 6 5 5 5 4 3 2 1 1 2 3 4 4 5 5 5 5
20 20 19 17 14 13 11 11 9 7 8 6 6 5 4 5 6 7 6 8 7 6 4 4 4 2 2 2 4 5 5 6 5
22 22 19 16 14 13 11 11 10 7 5 4 5 7 7 6 7 8 7 10 8 8 7 5 5 4 3 3 4 5 5 5 6
23 20 18 16 14 13 12 11 8 8 7 7 7 7 8 7 7 8 9 9 10 8 11 9 8 8 8 6 6 7 7 7 7
21 19 16 16 15 13 12 10 11 8 7 7 8 8 8 9 8 6 7 8 10 10 10 11 11 12 11 10 9 10 8 9 10
25 18 16 16 13 11 12 11 11 10 8 7 8 7 7 8 8 9 10 11 12 13 10 10 11 14 13 15 15 14 13 11 11
26 19 18 16 14 14 13 12 12 11 9 6 6 3 7 8 8 7 10 11 14 14 15 16 16 18 17 18 19 18 17 15 12
25 20 19 18 16 15 15 15 13 10 10 14 5 2 3 2 8 8 10 10 12 13 16 17 17 17 14 18 17 17 19 18 10
24 23 19 18 19 18 16 15 12 15 18 11 10 10 11 5 3 9 9 11 14 9 13 11 13 15 17 15 13 13 14 13 14
26 24 21 20 19 16 15 14 15 15 15 14 14 13 11 9 10 9 13 8 11 9 10 12 11 9 10 10 8 11 16 15 14